GFSNE_925_spd_000.txt.gz
Wind_Speed
11 9 6 6 5 5 8 8 10 7 10 16 17 15 14 14 14 13 14 13 13 13 12 12 9 8 7 8 10 12 15 13 15 17 20 22 23 24
8 11 12 11 11 11 13 14 17 17 12 19 18 18 18 17 17 17 19 20 20 18 16 17 16 15 11 10 11 13 15 18 17 17 15 17 19 21
11 13 14 14 15 16 16 17 19 19 14 20 21 20 21 20 21 21 21 22 22 21 20 22 24 23 21 19 18 18 16 18 20 20 20 18 18 17
15 16 17 17 17 17 17 18 18 19 20 19 22 21 22 22 22 23 24 23 23 22 20 24 23 23 26 28 25 22 23 20 21 22 22 23 21 20
18 17 16 15 16 16 16 18 19 20 21 22 23 23 23 23 25 25 26 26 26 27 26 25 26 24 23 24 25 26 26 25 23 22 24 24 24 23
15 14 15 16 18 18 19 20 22 23 23 23 24 25 24 24 26 26 26 26 27 27 27 28 27 25 27 25 24 27 28 29 28 26 23 25 27 27
18 18 18 18 18 21 23 23 23 24 24 23 23 23 22 22 23 24 26 25 26 25 26 27 26 26 29 33 34 33 33 32 30 31 28 27 28 28
22 22 22 22 23 22 21 23 24 25 25 23 22 21 24 22 20 21 21 21 13 23 25 27 24 25 27 27 26 26 26 31 30 28 28 29 28 28
24 23 23 23 22 22 22 20 22 23 25 26 26 26 26 23 22 22 21 21 21 21 21 20 18 18 19 22 23 25 25 27 29 29 29 29 28 26
23 23 24 24 22 18 20 21 21 22 23 24 27 28 27 25 24 24 25 25 24 23 22 16 18 20 19 22 24 24 22 25 23 21 23 25 26 25
23 22 21 21 21 19 20 22 23 24 24 27 30 29 29 29 28 24 22 20 18 24 24 23 20 20 21 22 23 22 21 23 25 24 22 19 16 17
20 20 20 21 22 20 20 19 23 24 23 21 20 21 32 29 29 29 28 24 21 17 22 22 20 18 14 21 23 22 23 27 28 27 27 24 21 17
21 21 19 15 10 13 16 20 22 20 21 21 22 22 21 22 23 24 27 28 25 24 21 19 12 17 18 17 8 8 10 13 16 21 28 28 24 20
21 20 9 16 14 14 14 13 15 17 17 17 16 17 18 19 20 20 22 23 26 28 25 18 16 19 16 14 12 14 13 12 10 13 16 18 22 17
16 13 15 13 12 11 8 11 11 10 11 12 13 14 14 15 16 16 19 20 21 23 23 23 21 21 18 17 12 11 10 11 10 10 13 13 13 11
17 8 10 11 9 9 8 7 7 9 10 11 12 12 13 13 14 14 15 15 18 19 21 22 22 21 21 19 18 17 14 8 10 10 11 11 9 11
11 8 9 10 10 10 10 9 9 11 11 11 11 11 11 10 10 7 8 10 12 12 13 15 19 20 19 18 17 17 15 14 14 13 12 12 12 13
8 9 10 11 12 13 14 13 11 11 12 12 11 10 11 10 11 6 5 8 9 9 10 9 12 14 14 17 20 18 17 15 14 15 16 12 15 14
10 11 11 12 13 14 14 13 13 13 12 11 12 11 12 11 11 9 4 5 6 7 6 6 9 11 7 9 7 12 13 15 12 11 11 11 12 13
11 12 12 13 13 14 14 14 13 13 12 12 11 12 12 11 10 10 10 10 6 3 2 2 4 7 6 5 0 5 4 6 7 9 10 9 10 12
12 12 12 12 13 13 14 14 13 14 14 13 12 12 12 11 9 10 11 8 9 5 3 3 4 3 4 3 2 3 4 4 4 3 1 6 8 8
11 11 11 12 12 13 13 14 14 15 15 14 14 13 12 10 10 10 10 10 9 7 5 4 4 3 2 4 3 3 2 2 4 0 3 0 2 2
11 11 11 11 12 12 13 13 14 14 14 14 14 14 12 11 10 9 9 8 8 7 6 5 3 3 2 2 2 2 3 1 2 1 5 3 1 3

GFSNE_925_spd_003.txt.gz
Wind_Speed
13 12 12 12 12 10 10 10 7 4 9 11 14 16 16 17 15 11 12 16 18 16 14 9 11 11 11 12 13 16 17 17 15 15 17 18 21 23
15 14 14 13 14 16 15 14 15 15 9 20 19 18 19 18 14 14 14 10 12 14 15 19 17 16 16 14 13 12 13 15 16 17 16 16 16 17
18 19 19 18 18 19 19 19 20 21 13 20 20 19 18 19 20 18 16 18 20 24 25 24 23 22 22 20 20 20 18 16 15 17 19 18 18 18
20 22 23 23 22 21 21 21 21 21 21 19 21 21 21 20 19 19 20 21 21 22 22 23 23 23 24 27 28 25 24 23 23 19 21 22 20 20
23 24 24 24 23 21 20 21 20 20 20 21 20 22 22 22 22 21 21 20 22 22 20 17 19 24 26 27 27 24 26 26 25 23 23 23 24 24
23 23 22 22 23 22 21 21 21 21 22 23 23 23 23 23 23 21 21 21 21 22 22 24 23 26 26 28 31 31 30 31 30 27 26 25 24 24
27 27 26 24 20 21 24 26 24 23 23 22 21 22 21 20 20 20 19 18 18 18 18 20 20 23 29 32 35 28 30 30 29 31 30 29 28 27
28 28 28 27 23 20 17 19 24 25 24 23 23 21 23 22 21 20 19 17 10 18 20 20 20 21 21 21 18 32 33 30 35 36 36 33 31 29
27 28 27 26 25 24 25 25 20 20 24 24 25 26 25 24 23 22 21 20 19 18 18 18 15 17 16 21 25 20 13 14 24 25 29 29 30 29
27 26 26 26 26 19 19 21 21 22 21 22 26 26 24 24 24 24 22 22 21 20 18 17 17 18 17 19 21 24 24 23 20 21 25 29 31 30
25 24 23 24 25 23 21 22 23 23 22 24 28 31 32 31 29 25 20 18 15 20 21 22 21 21 20 21 22 25 29 25 26 26 23 23 23 22
23 23 23 24 25 24 22 22 21 21 20 20 20 20 22 24 30 30 25 21 20 17 21 19 20 20 15 19 25 26 25 28 30 28 27 26 24 21
24 23 22 7 10 12 14 16 20 20 20 22 22 22 22 23 23 22 30 28 25 24 22 18 8 15 19 18 18 16 14 17 21 23 25 29 27 25
23 22 13 20 18 17 15 14 14 16 16 17 17 18 17 17 19 20 21 24 29 29 23 19 16 20 18 14 13 16 17 19 15 15 15 18 23 28
18 21 15 14 16 14 9 11 12 12 10 12 13 13 12 12 14 16 17 18 21 23 23 23 23 21 19 15 14 15 12 13 14 14 14 15 20 22
19 16 13 13 13 13 10 8 7 7 9 11 11 12 12 12 14 16 17 15 16 18 21 23 24 21 18 18 17 16 17 12 7 12 15 14 15 13
18 11 11 13 14 12 10 9 8 9 10 10 11 12 12 11 13 11 8 9 11 12 13 17 22 23 21 19 17 18 16 15 17 13 12 14 15 15
11 11 13 14 13 13 14 13 12 13 12 12 12 11 11 12 14 13 5 7 9 8 10 9 12 13 13 17 23 17 16 14 15 12 15 15 12 13
12 12 13 14 16 16 16 16 15 14 13 12 12 11 11 11 13 12 10 7 7 8 8 4 7 11 7 8 7 22 15 13 12 12 13 12 8 9
12 13 14 15 15 16 16 15 16 14 14 13 11 11 11 12 10 11 11 10 10 9 5 4 5 7 6 4 3 2 2 5 7 10 9 7 9 9
13 13 13 14 14 15 15 15 15 14 14 14 14 13 12 12 11 11 11 11 11 10 8 8 8 7 6 6 5 7 4 5 3 3 7 5 4 7
12 12 12 13 13 13 14 15 16 15 15 15 15 13 13 11 10 11 10 10 10 9 8 6 6 6 5 6 5 3 4 2 5 3 3 2 3 3
10 11 11 12 12 13 14 14 15 15 16 16 16 16 14 13 12 10 10 10 10 9 9 8 8 4 5 6 6 3 1 1 1 5 4 6 3 4

GFSNE_925_spd_006.txt.gz
Wind_Speed
23 19 19 19 19 19 17 17 12 5 6 16 8 18 13 17 18 15 17 16 16 15 16 14 13 11 9 9 10 13 15 17 18 18 19 20 18 18
19 18 21 20 20 21 20 21 21 17 9 15 22 18 18 16 19 16 20 16 11 14 15 13 13 15 15 13 11 8 9 10 11 15 17 17 16 16
21 19 18 19 20 19 20 22 23 20 10 18 20 20 20 18 15 18 20 18 14 16 18 20 22 24 24 23 21 18 15 13 11 11 15 17 17 17
21 23 23 20 21 20 19 20 20 20 22 17 19 21 23 22 21 20 16 14 18 20 22 23 25 23 22 21 22 25 25 24 20 18 18 17 17 18
23 27 27 25 23 22 21 20 19 17 19 20 18 21 23 24 24 23 20 19 17 15 17 18 15 20 24 22 24 25 26 26 26 24 23 21 20 19
23 29 31 28 26 25 20 18 15 19 21 22 22 21 21 21 23 25 25 24 23 19 18 18 17 20 24 27 28 28 29 30 29 29 27 25 24 23
24 26 28 30 30 26 20 20 19 17 17 18 19 20 19 18 17 16 17 15 13 11 11 13 15 14 19 25 28 28 30 31 32 32 32 31 29 28
26 27 29 30 29 24 17 19 21 23 21 19 18 17 20 21 20 18 18 14 4 12 11 12 13 17 18 13 14 21 21 22 27 32 31 31 33 33
26 27 28 25 27 24 19 17 14 14 20 22 20 21 22 25 24 22 18 17 15 14 16 18 17 19 18 17 14 10 11 16 16 15 23 29 30 30
25 27 28 27 23 22 20 18 18 19 18 18 21 26 25 25 23 21 19 18 20 20 18 14 19 23 21 19 20 22 22 20 19 24 23 20 20 22
25 25 26 26 27 25 24 21 20 20 20 22 25 27 27 28 29 25 21 17 13 15 16 21 21 23 25 26 28 25 27 29 28 27 25 29 29 26
23 24 24 24 10 11 12 14 16 17 15 17 21 21 21 22 23 21 25 20 18 14 23 20 17 17 10 22 24 28 29 27 28 28 28 28 26 25
24 24 24 17 16 16 16 18 18 18 20 20 21 22 22 22 21 22 22 25 22 22 23 18 14 11 9 10 15 19 20 22 18 19 22 25 28 29
25 23 25 21 17 20 17 14 14 15 18 19 19 20 20 21 21 19 19 21 25 29 28 19 10 15 17 14 13 17 16 16 16 21 19 17 20 22
23 24 22 16 16 16 15 15 15 13 15 9 12 14 14 16 16 16 17 19 21 23 23 23 24 23 20 16 11 15 15 14 16 16 19 18 18 20
24 22 16 17 16 21 13 12 11 9 10 12 12 14 14 14 15 14 17 18 18 19 18 21 25 24 21 21 18 18 16 10 12 15 13 16 16 17
21 15 16 19 20 17 18 17 16 15 14 14 15 15 14 15 15 16 18 10 10 11 13 15 18 21 23 20 18 19 20 16 14 13 16 19 19 19
15 14 14 17 17 16 15 15 16 15 16 15 14 14 14 15 16 18 19 9 12 12 10 9 11 15 15 17 21 21 18 15 11 10 11 11 15 18
14 14 14 16 17 17 16 15 16 17 17 19 15 14 14 15 16 15 18 16 15 15 9 10 8 13 4 5 3 14 16 13 10 9 8 10 14 10
14 14 15 16 16 17 18 19 21 17 19 20 18 17 15 16 14 14 15 14 15 14 12 15 14 11 4 2 3 2 2 9 11 11 11 10 10 6
14 14 15 16 16 17 19 20 21 19 18 19 20 20 19 15 14 14 13 14 14 14 12 12 10 9 9 7 3 4 3 5 3 7 8 7 5 7
14 14 15 15 15 16 18 19 19 19 19 20 20 22 22 17 17 13 14 13 13 13 12 12 9 7 7 7 8 5 6 2 3 4 4 3 3 2
13 14 14 14 15 15 16 17 18 18 18 19 19 21 23 19 20 14 15 14 13 15 16 15 10 7 5 4 5 2 3 2 1 5 1 7 4 3

GFSNE_925_spd_009.txt.gz
Wind_Speed
20 20 17 17 22 18 16 18 14 8 8 13 19 25 24 18 16 8 13 13 14 18 15 13 14 11 6 7 8 9 12 14 13 14 14 14 14 13
21 22 21 20 18 19 18 19 17 15 8 17 20 22 22 17 14 15 14 15 18 21 18 14 10 10 10 10 10 8 8 9 10 10 12 12 11 10
15 17 19 22 23 24 23 20 16 14 12 21 19 18 19 19 17 14 13 14 14 16 17 15 13 15 14 15 16 16 14 12 11 10 10 11 12 11
18 23 24 24 26 28 27 24 22 20 16 12 14 18 20 22 21 20 17 11 14 15 22 21 19 18 19 18 15 14 15 16 18 18 17 16 13 13
21 23 27 28 28 25 27 26 25 17 14 12 9 16 20 22 25 23 22 21 15 15 11 14 18 19 19 20 21 19 18 18 19 19 18 19 19 18
23 24 26 25 26 26 26 26 25 22 20 18 15 13 14 18 19 16 19 16 14 11 17 18 10 11 17 19 21 22 21 21 21 22 22 22 23 22
23 23 25 26 25 25 22 19 19 17 18 17 17 15 13 14 13 14 16 20 18 9 9 5 4 6 6 5 14 23 25 25 24 24 23 23 23 25
23 27 27 23 21 22 21 16 15 14 17 18 15 12 13 13 19 19 18 15 4 9 15 14 11 9 6 8 11 11 13 18 18 20 23 22 23 23
22 27 27 22 24 23 22 20 18 14 12 13 13 16 18 19 21 21 17 14 14 16 17 17 17 17 15 10 8 10 12 14 16 16 18 17 17 21
22 25 24 25 24 23 24 23 20 19 19 19 18 21 20 22 21 20 20 17 20 20 18 13 20 21 20 19 16 15 15 17 18 21 24 22 22 21
21 22 23 25 23 19 15 17 18 20 20 16 16 15 15 17 20 21 19 16 14 18 22 16 14 17 17 20 22 22 23 23 23 23 22 25 25 25
21 22 22 22 19 18 15 18 18 20 18 18 19 21 22 24 24 22 22 15 14 6 20 12 20 18 7 17 17 18 22 23 23 21 21 24 24 25
21 21 23 23 24 16 18 19 20 17 16 18 19 20 18 17 17 17 21 23 19 17 21 13 13 16 13 12 17 20 18 19 20 20 20 18 19 23
21 24 27 22 19 18 17 15 12 14 14 15 14 16 16 14 14 15 18 19 22 25 24 20 14 20 17 14 12 22 17 14 13 12 14 16 19 20
22 21 18 18 17 19 17 15 13 14 10 9 8 10 13 12 12 11 9 11 16 21 22 22 25 21 20 14 9 13 14 11 11 14 12 12 18 18
21 16 18 19 21 18 20 18 18 17 14 13 13 14 13 13 12 11 13 12 7 11 13 18 21 24 20 22 19 19 19 13 7 12 15 16 14 19
16 16 17 19 19 19 19 20 19 18 17 15 15 14 14 14 13 14 15 8 6 9 11 7 11 16 22 21 16 21 21 21 19 17 16 16 14 13
15 16 15 18 16 17 18 19 20 17 18 18 16 14 14 15 15 15 15 15 12 14 11 8 6 10 13 15 19 19 18 19 17 12 11 9 12 13
15 16 17 18 17 16 18 19 21 18 19 19 19 18 17 17 15 17 17 17 15 16 15 16 6 3 3 3 4 8 14 14 12 11 10 8 11 12
16 15 17 17 17 16 19 18 21 20 21 20 20 21 21 18 16 16 16 15 14 12 13 14 14 9 2 2 1 1 1 5 8 10 10 8 9 11
15 15 16 17 17 17 19 19 19 19 19 19 20 22 23 20 18 16 15 14 14 13 11 15 11 8 7 4 0 3 3 2 3 3 5 6 6 5
12 13 13 14 16 15 17 19 18 20 19 19 19 21 22 21 21 16 16 15 15 15 14 12 10 3 3 4 2 4 4 1 2 3 4 3 3 1
12 13 12 12 14 15 15 16 17 19 18 18 17 19 20 23 21 20 15 15 14 18 18 16 13 9 6 4 3 5 4 4 0 2 2 4 3 3

GFSNE_925_spd_015.txt.gz
Wind_Speed
15 15 11 8 9 10 13 12 8 6 7 9 8 17 14 16 16 12 8 12 16 20 19 16 12 19 7 2 5 10 13 13 14 14 12 9 9 7
11 10 12 13 16 18 19 18 15 15 8 14 20 21 15 16 20 17 13 11 14 16 18 15 14 16 22 12 5 4 6 10 12 11 10 10 8 5
12 14 17 18 19 22 23 24 24 19 13 18 21 24 17 11 13 16 16 16 12 13 18 19 18 12 12 16 26 11 4 6 9 10 10 10 8 8
14 17 21 21 21 21 23 23 22 22 21 19 20 21 18 18 15 16 15 12 12 9 14 16 19 20 13 10 14 7 16 7 7 7 7 9 7 6
18 21 21 19 21 24 24 25 23 21 21 21 21 22 21 16 17 15 14 14 13 12 11 10 13 14 15 15 19 16 13 12 8 7 8 9 8 6
21 21 19 20 21 24 25 23 19 19 19 17 17 17 17 17 13 12 12 12 15 14 8 7 6 6 6 8 9 13 22 19 17 13 7 6 5 5
22 21 21 20 22 22 21 20 23 19 18 12 12 12 11 12 12 9 9 12 15 14 13 7 3 5 6 3 2 5 15 20 17 13 11 8 7 4
23 22 23 21 21 22 23 22 22 22 17 15 13 13 13 12 12 13 10 6 2 5 4 11 9 7 2 2 3 2 5 11 13 12 10 8 6 7
20 23 23 20 22 23 22 23 23 19 19 20 18 17 14 18 13 14 13 11 9 14 11 9 10 14 12 10 6 2 3 6 7 7 6 5 5 6
21 19 21 22 21 22 24 25 20 18 16 15 18 21 23 21 20 19 17 15 15 16 13 7 12 13 14 11 11 10 12 10 10 9 8 8 8 9
17 21 18 20 20 24 20 21 19 19 18 16 17 18 13 9 15 16 15 12 11 13 11 11 11 11 15 15 12 11 13 15 16 16 15 14 13 13
22 20 17 18 22 22 18 21 16 19 18 19 16 14 15 17 18 17 17 14 12 6 11 11 13 5 2 4 8 16 14 15 18 18 18 20 20 17
18 19 20 20 20 18 17 18 17 15 13 14 14 14 11 10 13 16 18 22 18 18 14 12 7 6 5 3 5 2 7 7 7 8 9 13 16 16
18 18 19 19 17 16 17 18 14 14 14 13 11 11 10 10 9 9 11 15 19 24 20 16 17 15 13 5 4 9 10 9 7 8 9 9 12 13
15 14 15 16 15 15 16 16 16 17 16 15 13 12 12 11 9 7 8 11 15 18 16 20 22 20 14 10 6 5 5 3 4 7 12 10 9 10
14 12 15 16 14 15 17 17 18 19 18 16 15 13 13 13 10 7 8 7 9 9 6 14 20 20 16 15 12 15 17 8 1 4 10 15 11 10
12 12 16 19 19 18 19 19 20 21 21 20 18 16 15 14 13 12 9 5 2 2 3 1 11 18 19 16 12 14 16 16 15 13 12 14 17 16
9 12 15 17 18 15 18 19 20 21 20 19 18 17 16 16 14 14 12 10 11 10 8 4 0 5 9 11 14 14 13 14 13 11 13 13 18 15
9 10 11 13 16 14 16 15 17 18 16 16 17 18 17 16 15 15 14 12 11 11 10 10 5 3 2 2 3 6 8 7 8 11 11 15 12 8
9 9 9 10 13 12 14 15 17 17 16 15 16 18 18 15 15 16 13 13 11 10 10 8 8 7 2 2 2 2 1 2 4 4 6 10 11 12
8 8 9 9 10 11 11 13 14 16 14 13 15 16 16 16 16 14 14 11 11 11 10 10 8 4 2 1 0 2 5 2 0 1 1 4 3 3
7 8 8 9 9 10 10 12 14 15 15 14 13 14 15 14 14 14 13 13 12 11 11 9 5 2 1 1 1 3 3 3 1 1 1 2 0 1
8 8 8 9 9 9 10 9 12 14 13 13 12 12 13 14 12 12 10 9 11 13 14 11 8 4 4 3 3 1 0 1 1 0 1 2 2 2

GFSNE_925_spd_021.txt.gz
Wind_Speed
12 12 12 13 10 11 12 12 15 13 15 31 31 26 28 28 29 26 25 24 24 23 20 19 17 18 20 19 18 18 19 16 27 29 29 27 23 21
12 12 12 12 12 14 15 16 17 22 15 28 30 29 28 28 27 27 27 25 23 18 16 17 17 17 18 19 20 17 18 17 20 23 26 30 26 26
11 11 13 14 17 19 19 20 20 20 21 33 29 29 29 27 26 25 26 25 21 16 14 12 14 16 16 16 17 18 20 13 12 20 20 27 30 24
10 12 16 18 20 21 20 21 22 22 24 29 29 27 25 25 25 24 23 21 22 20 18 17 14 14 15 15 16 17 17 11 9 13 20 26 26 25
12 16 18 19 22 22 22 24 22 22 22 25 29 27 25 23 24 20 21 23 21 19 18 16 14 13 14 13 15 16 22 15 8 4 14 20 28 26
14 16 18 19 21 23 23 23 22 20 22 23 26 26 23 22 20 18 18 18 20 18 16 15 15 13 11 12 13 14 15 24 11 7 10 15 14 22
16 17 17 19 20 18 19 20 21 22 22 21 23 22 22 19 18 19 17 18 18 13 13 11 9 9 10 9 9 11 11 18 23 8 11 13 14 16
17 19 17 16 16 18 18 18 18 24 24 24 23 21 20 19 19 19 14 13 10 9 8 7 6 10 8 7 10 7 9 19 27 18 14 11 10 10
16 16 16 16 17 17 18 21 21 20 22 24 24 23 21 20 19 19 16 12 13 12 9 12 9 11 11 12 11 9 6 13 27 26 19 10 10 13
15 15 16 17 16 18 22 20 18 20 19 17 19 22 21 21 20 19 15 16 15 15 11 12 13 14 12 11 14 13 7 10 20 22 20 17 10 9
14 15 16 16 16 20 20 19 20 20 16 18 20 21 21 21 20 18 17 14 14 16 13 12 13 11 9 9 10 15 13 12 13 18 18 17 16 10
15 15 13 14 18 19 19 18 19 19 21 19 17 15 13 14 15 15 16 14 13 4 6 8 9 7 4 3 6 11 15 14 11 14 14 14 14 13
15 16 14 15 18 17 15 13 17 20 18 16 16 14 13 12 10 7 11 16 17 17 13 10 9 8 7 3 1 2 12 14 14 18 20 21 20 18
15 15 15 17 17 14 12 14 15 14 14 14 14 13 13 13 12 11 10 12 15 18 15 12 15 14 11 9 6 1 4 9 11 10 12 17 21 22
12 14 14 15 14 11 12 13 12 12 13 14 14 15 15 14 14 11 10 11 13 15 15 16 16 14 13 12 8 6 3 7 10 8 9 12 11 12
12 11 11 12 11 10 11 11 12 11 11 12 14 15 14 14 13 14 10 7 9 10 13 17 20 18 14 13 11 7 6 3 8 7 6 9 9 10
13 9 8 10 11 11 11 11 12 13 12 13 14 15 14 14 15 15 13 11 9 7 5 4 8 15 15 11 11 11 9 8 8 6 7 8 11 14
8 8 8 9 10 11 11 12 11 13 13 12 12 13 14 14 15 14 13 11 10 10 10 9 1 8 8 12 12 7 10 9 9 9 9 9 11 13
8 8 8 8 8 9 10 10 12 12 12 10 11 12 13 13 13 13 13 12 11 9 9 9 10 6 5 4 4 10 3 7 6 7 10 10 10 8
9 9 8 7 8 8 9 9 10 11 11 11 10 11 11 11 12 12 12 12 11 10 9 7 8 8 7 4 2 2 4 5 5 4 6 8 7 8
11 10 9 8 8 8 8 8 8 9 11 10 9 10 11 11 11 11 11 11 11 11 10 8 8 7 3 0 1 2 2 3 4 3 4 6 6 6
13 12 10 9 9 8 8 7 8 8 9 9 9 9 9 9 10 10 10 11 11 11 11 10 9 5 2 2 1 1 2 3 3 4 4 3 1 3
14 13 12 10 10 9 8 7 7 7 7 8 8 8 8 9 9 8 8 8 9 11 10 9 7 4 3 3 2 1 2 4 3 4 2 2 2 2

GFSNE_925_spd_024.txt.gz
Wind_Speed
14 15 15 17 19 20 22 22 21 14 16 30 32 30 29 28 28 30 30 30 29 26 27 25 22 21 20 20 22 23 21 20 22 23 23 26 31 31
16 17 18 20 21 23 23 23 24 26 16 31 32 30 30 30 30 30 30 29 31 31 29 22 19 20 20 19 21 24 23 20 21 25 22 25 31 32
16 18 18 20 23 24 25 26 27 27 23 34 33 31 29 29 28 26 27 28 28 27 26 21 15 16 18 19 20 22 23 22 21 23 22 23 29 31
16 15 19 23 24 24 25 25 27 28 27 30 31 29 28 28 28 28 26 26 27 26 17 15 16 19 19 19 20 22 23 22 21 20 21 21 28 30
12 16 20 21 22 22 23 25 24 24 24 26 29 28 27 26 26 24 24 24 24 25 26 24 18 15 17 18 19 21 21 20 21 17 18 17 22 29
14 17 17 18 19 21 21 21 20 21 23 25 26 26 25 23 23 22 21 21 20 20 21 19 17 19 20 18 17 20 21 19 20 16 10 12 8 26
15 15 16 16 16 15 17 19 20 21 21 23 24 24 24 23 21 21 21 21 22 21 19 16 16 16 15 12 14 17 17 17 18 15 8 4 19 6
15 16 16 15 14 18 16 17 19 23 25 25 24 24 25 24 22 20 20 20 10 14 12 15 8 11 14 12 10 15 17 17 14 20 10 6 6 6
14 15 16 15 16 17 18 20 23 20 20 23 27 24 23 23 22 21 21 20 20 17 9 14 9 11 13 14 13 17 16 17 14 21 14 10 9 9
13 14 15 16 16 16 20 22 21 21 21 20 22 25 25 25 23 21 22 23 23 20 16 15 13 14 13 16 16 19 18 15 9 20 28 16 10 6
13 13 14 15 14 17 20 21 21 20 18 18 21 22 23 22 19 20 20 19 17 18 16 18 15 15 16 15 14 15 15 16 8 16 19 20 15 10
13 13 12 11 15 18 19 19 19 19 22 22 20 18 18 17 15 15 15 17 17 14 7 7 8 9 10 11 10 11 10 14 7 8 19 19 17 10
14 14 13 14 17 18 16 15 17 21 21 19 17 17 15 16 16 14 12 14 16 18 16 11 9 9 8 6 2 5 9 8 11 5 11 14 13 9
13 14 15 17 17 17 13 15 16 16 16 15 16 16 16 17 16 16 16 15 14 16 16 10 10 13 11 11 6 3 5 8 9 6 7 8 12 14
12 14 17 15 15 13 11 12 13 13 14 14 15 16 16 17 18 17 15 13 14 14 14 13 13 13 11 11 9 6 2 6 9 10 9 10 12 12
10 13 13 13 12 11 11 10 11 12 12 13 14 15 15 16 17 17 17 15 9 11 13 15 16 16 14 12 9 7 5 2 9 11 9 9 11 12
13 10 10 10 10 9 9 9 10 11 12 11 13 14 15 15 16 16 16 16 12 11 8 2 7 15 13 9 9 10 8 7 3 8 7 11 11 12
10 11 10 10 10 10 9 10 9 11 11 12 12 13 14 14 16 15 14 14 13 12 11 9 0 7 7 10 11 7 12 10 9 6 6 7 8 8
11 11 10 10 11 10 9 9 9 10 10 11 11 12 13 14 14 13 14 13 13 12 11 10 11 6 7 6 6 11 8 11 9 9 9 8 8 6
12 12 11 10 10 10 9 9 9 9 9 10 10 11 11 12 12 12 12 13 13 13 11 9 9 11 10 6 4 2 3 3 4 4 6 6 6 8
14 13 12 11 10 10 9 9 8 8 9 9 9 10 10 11 11 11 11 11 11 10 10 9 10 11 6 4 3 6 1 3 4 1 4 6 8 9
16 15 13 12 11 10 9 9 8 8 8 8 8 9 9 9 10 11 10 11 10 10 10 10 9 7 4 5 2 3 5 4 4 4 2 1 2 2
18 16 14 13 12 11 10 9 9 8 7 7 7 7 8 9 9 9 10 10 10 10 10 9 7 4 3 3 4 2 4 7 8 7 3 2 1 1

GFSNE_925_spd_027.txt.gz
Wind_Speed
17 15 15 14 16 17 20 22 21 13 14 26 27 29 27 27 28 28 29 31 32 32 35 37 29 26 25 24 22 23 24 23 22 22 23 24 24 24
16 15 13 17 16 19 22 24 24 25 15 28 28 29 29 30 29 29 30 29 31 32 32 34 30 29 25 22 22 22 25 25 24 23 23 24 25 24
14 12 16 15 18 21 25 25 25 25 20 29 30 30 29 28 28 28 29 30 31 31 31 31 32 31 25 21 22 23 24 26 26 26 23 23 24 24
13 14 15 17 22 25 24 25 26 27 27 27 29 27 28 28 28 29 29 27 28 28 28 28 21 22 22 23 24 24 24 25 26 26 23 24 26 27
12 13 17 20 21 20 21 23 25 25 24 23 26 26 26 26 28 26 26 25 26 25 27 24 29 29 27 26 23 23 23 23 25 24 22 21 23 25
14 16 18 17 17 16 21 20 21 22 22 23 25 24 26 26 26 25 23 23 23 25 26 24 20 19 23 25 26 23 23 22 20 20 20 18 18 15
17 16 15 14 16 14 14 19 19 20 21 22 22 23 22 23 24 25 24 24 23 22 24 22 20 19 19 23 25 20 19 18 17 19 18 15 15 14
15 14 14 14 12 17 15 13 17 22 24 24 23 23 27 26 23 23 23 22 13 22 16 20 20 18 12 13 11 11 14 16 17 18 14 11 9 14
13 14 15 14 14 15 16 18 20 23 23 24 26 24 24 25 26 26 24 23 23 23 21 21 18 14 12 14 10 14 18 18 18 17 12 2 4 4
12 13 14 14 12 13 17 20 21 21 20 19 21 25 26 27 24 24 25 26 25 25 22 19 20 17 14 14 18 18 20 20 18 16 10 9 11 11
12 13 11 13 12 17 17 19 21 20 19 20 21 24 25 27 27 26 23 19 17 20 18 16 20 17 17 18 18 20 19 16 15 14 10 12 15 18
11 11 11 6 12 14 16 18 20 20 23 23 23 21 20 19 18 18 21 19 18 15 14 8 10 11 13 17 18 16 13 10 10 13 10 16 18 13
11 12 10 13 16 16 15 14 16 21 20 19 20 19 18 17 17 18 18 17 17 18 18 9 13 15 10 10 6 6 6 6 5 10 7 15 21 15
12 12 12 16 17 15 14 13 19 16 17 17 17 16 16 17 19 21 23 20 21 20 18 14 10 12 12 14 12 6 5 4 3 4 8 13 17 12
11 12 16 15 14 13 9 15 13 13 15 16 16 16 17 18 20 20 23 21 23 18 16 15 14 12 11 13 12 10 5 2 5 5 3 10 7 6
12 9 14 13 12 13 13 11 11 11 13 15 15 17 17 17 18 19 22 23 24 7 14 14 13 12 13 12 11 9 7 2 4 6 4 3 4 5
11 11 11 10 11 11 11 11 11 11 12 13 14 15 16 16 16 18 18 20 18 17 16 6 10 13 14 12 11 8 7 4 1 4 5 4 4 5
10 12 12 9 10 11 11 11 11 10 11 11 13 14 15 16 16 17 15 16 16 16 15 15 15 4 7 9 11 5 7 7 4 5 2 2 3 5
12 13 13 10 10 12 11 11 11 10 10 11 12 12 13 15 17 15 14 14 15 16 15 15 12 13 6 5 4 9 6 7 8 7 6 5 1 4
16 14 13 12 11 12 11 10 10 10 10 10 11 11 11 13 14 15 14 14 14 15 13 12 12 13 10 7 3 2 1 7 4 4 5 4 5 7
16 17 16 13 12 12 11 9 9 9 10 9 10 10 10 11 12 12 14 13 15 13 13 14 13 13 10 10 4 5 4 3 3 4 3 4 7 9
18 19 18 15 13 11 10 10 10 10 9 8 8 9 9 10 11 10 12 14 13 13 14 14 12 11 10 7 5 4 5 4 3 2 2 3 3 0
21 20 19 17 14 13 13 12 11 10 9 8 8 8 8 9 9 10 10 11 12 12 13 14 12 10 8 6 6 6 6 5 5 5 3 3 3 4

GFSNE_925_spd_030.txt.gz
Wind_Speed
19 19 16 12 14 12 11 13 14 9 10 21 22 24 18 23 23 26 27 25 27 28 29 32 30 31 31 30 33 32 28 23 23 22 23 23 23 26
19 19 15 12 9 10 12 16 21 21 10 22 22 24 24 24 24 25 28 28 30 30 32 32 32 33 32 31 29 29 27 23 22 22 23 23 23 26
12 10 10 11 11 14 17 18 19 20 16 24 26 24 26 24 26 28 29 30 31 29 28 31 31 31 31 31 30 26 26 23 22 23 23 24 24 25
11 9 10 12 16 16 17 16 19 23 23 22 23 24 23 25 25 27 27 27 28 29 30 30 31 29 27 26 26 24 26 29 27 25 25 26 25 25
10 10 13 14 16 14 13 18 20 20 22 22 23 24 23 25 26 26 27 27 25 26 27 26 25 27 26 27 29 28 30 31 28 23 24 25 25 24
12 14 14 13 10 13 15 15 16 18 20 20 22 23 23 24 24 24 22 25 25 26 26 26 26 26 23 25 27 34 28 26 26 23 20 23 24 21
16 14 12 13 16 15 13 15 14 16 19 20 21 22 21 21 20 22 22 23 26 25 26 25 23 26 29 25 24 29 30 25 21 18 18 19 21 21
15 12 12 14 11 11 9 7 12 17 22 21 23 21 23 22 20 21 22 21 15 23 22 29 23 25 25 25 11 13 10 14 11 15 17 18 16 18
12 10 12 12 12 13 15 18 21 19 22 25 23 19 19 20 23 24 23 22 23 28 25 27 26 24 24 22 14 10 11 12 14 18 19 19 12 14
11 11 12 11 13 14 17 22 18 19 20 22 19 21 22 26 27 26 27 27 29 29 24 18 23 26 27 22 21 20 19 17 15 17 17 11 12 11
11 11 12 11 12 14 19 17 18 19 18 20 24 23 23 25 25 25 24 20 19 23 25 21 19 22 20 21 22 23 21 19 18 17 14 9 14 11
10 9 13 9 10 14 15 14 17 18 22 25 22 23 22 22 19 17 17 17 17 15 11 11 15 14 7 6 18 19 16 16 13 12 11 10 17 15
10 9 10 9 14 19 13 13 14 18 18 20 21 21 20 18 20 21 22 22 24 19 26 19 13 15 13 14 14 14 13 8 8 7 10 12 19 19
11 11 12 15 20 15 12 12 14 15 16 16 20 18 19 20 22 24 24 24 24 28 31 18 19 14 15 13 12 14 16 9 6 7 6 15 12 20
10 11 14 14 15 13 11 14 14 13 12 16 19 18 19 21 23 22 24 25 25 27 19 11 16 15 13 14 13 16 17 10 4 6 1 11 12 14
11 13 9 16 13 13 13 11 9 11 12 15 15 20 20 20 20 21 24 23 23 23 24 10 12 13 15 13 13 16 14 7 4 2 3 5 8 8
11 13 15 15 11 11 12 11 10 11 11 10 15 17 19 19 20 21 20 20 17 19 21 22 25 10 14 15 13 13 15 4 6 5 7 7 5 5
15 11 13 17 13 11 12 13 10 10 8 14 13 15 16 18 20 22 18 17 16 18 19 22 21 17 7 7 12 12 8 5 1 4 4 6 7 5
16 15 17 18 15 12 13 13 10 8 9 11 11 14 14 16 18 19 19 18 17 18 19 17 16 15 6 6 2 5 6 10 2 4 3 5 9 11
21 19 19 18 17 15 13 12 8 8 11 11 12 13 13 14 16 15 17 19 19 19 15 16 16 17 10 5 6 3 2 7 7 4 6 6 6 7
20 22 23 22 21 18 15 13 11 11 11 14 12 11 11 12 14 15 13 17 20 15 15 16 20 18 16 14 6 4 5 5 5 6 6 4 3 5
23 21 21 20 19 17 16 13 12 13 13 12 10 9 10 9 13 14 14 13 16 18 17 19 19 17 15 7 8 5 5 5 5 5 6 5 4 1
25 24 24 25 24 20 17 16 15 15 13 12 11 10 9 10 11 11 12 11 12 15 17 20 21 15 19 7 8 6 3 4 4 5 7 7 6 8

GFSNE_925_spd_033.txt.gz
Wind_Speed
15 14 15 12 6 9 9 11 5 3 6 19 17 14 20 20 23 24 23 28 28 28 30 27 26 27 26 26 26 27 27 29 33 32 29 26 25 24
16 12 7 5 3 4 8 9 9 10 4 11 20 22 18 22 22 24 29 26 28 28 28 26 26 26 27 27 25 26 27 27 28 30 28 27 26 25
11 9 8 6 5 7 6 7 7 11 9 17 20 21 25 25 29 26 26 26 25 27 25 28 28 29 29 27 27 26 28 28 26 24 26 28 27 25
6 7 8 8 7 8 10 9 11 16 13 15 22 25 26 27 26 27 26 27 25 24 23 28 26 24 25 24 26 27 26 23 25 25 27 27 27 26
6 8 12 11 11 10 9 13 15 15 15 17 21 23 24 25 27 27 25 23 29 21 23 24 24 25 26 25 23 26 26 28 29 28 29 29 29 30
6 10 11 8 7 10 13 11 12 12 15 19 19 21 21 25 23 23 20 22 26 28 26 26 22 22 25 24 25 29 27 26 32 29 24 27 28 29
10 11 7 8 11 12 7 9 10 13 16 19 17 19 21 20 18 18 20 25 29 25 25 22 26 28 28 26 29 30 19 21 22 25 25 23 24 27
10 8 10 11 11 5 4 5 9 14 19 17 17 18 21 17 17 22 22 20 12 20 14 32 27 28 27 24 23 26 10 13 10 16 14 18 23 24
7 9 9 10 12 11 12 17 18 20 14 18 22 15 18 21 22 23 22 20 22 33 23 27 28 27 24 27 24 20 19 16 15 14 15 20 22 21
8 7 9 11 11 13 17 17 20 18 15 14 17 24 22 21 22 24 26 28 28 30 21 15 25 26 26 24 14 14 19 21 21 20 20 20 20 17
10 12 11 9 12 11 14 18 21 19 13 14 16 16 18 19 19 20 16 17 16 23 25 17 16 21 21 16 9 14 24 15 17 18 20 20 16 17
10 10 10 12 10 12 16 18 17 16 16 18 19 19 19 17 16 17 18 16 18 19 17 11 20 14 6 9 18 16 22 20 11 13 16 15 13 17
12 14 12 11 10 13 16 14 13 13 17 17 18 20 19 21 20 20 20 20 20 22 31 25 13 11 11 14 14 18 16 22 13 14 14 14 13 20
13 13 13 12 14 16 11 11 12 13 16 17 17 18 19 23 23 22 20 20 20 23 27 29 10 10 14 12 10 16 19 20 13 12 14 12 15 18
16 12 10 12 13 15 13 15 15 16 15 16 18 14 17 19 21 22 22 20 22 19 21 22 12 16 14 15 13 16 18 18 11 9 13 8 13 16
19 16 14 14 15 14 15 13 12 11 11 11 11 16 16 17 21 22 23 22 20 22 21 20 20 20 15 14 9 14 16 10 19 6 8 3 9 15
18 17 17 16 17 15 15 13 12 12 11 10 12 12 15 17 20 21 21 20 16 17 21 24 22 18 10 10 8 7 12 11 10 5 6 10 9 8
18 20 20 18 17 19 18 15 13 13 10 8 10 10 13 15 18 19 19 19 16 18 19 20 22 23 17 8 5 7 7 9 4 5 6 7 8 8
19 21 21 20 20 20 20 17 15 13 9 8 9 11 12 13 15 17 17 19 16 19 19 18 18 15 6 5 6 3 5 9 3 1 4 7 9 9
23 24 24 23 22 22 21 19 16 13 11 11 12 12 9 11 13 14 16 17 18 15 16 16 18 17 12 5 5 4 5 9 7 7 7 8 9 7
27 27 26 26 26 25 23 22 21 18 15 12 12 11 10 10 10 13 14 14 16 13 14 16 21 16 17 11 4 2 6 8 8 6 7 5 3 4
28 28 28 28 26 25 22 20 22 20 16 13 12 12 10 9 10 10 13 13 13 14 14 19 18 17 14 7 6 5 4 5 6 7 7 5 1 3
30 29 29 29 29 28 28 23 22 23 18 14 14 14 12 12 11 8 11 11 10 11 16 18 17 17 14 13 12 8 3 4 5 7 9 9 9 11

GFSNE_925_spd_036.txt.gz
Wind_Speed
11 13 12 10 7 6 8 8 3 2 2 4 3 13 19 19 21 22 24 29 25 23 23 21 21 21 22 23 23 23 25 26 29 31 31 32 32 28
12 10 8 6 6 3 4 6 4 3 3 4 14 20 23 25 26 25 26 22 21 21 21 21 21 21 22 22 24 24 24 26 29 32 33 31 30 28
9 8 7 5 6 6 6 5 4 4 6 13 20 23 27 28 25 23 23 21 21 20 19 21 22 23 23 20 19 20 22 23 25 29 33 31 29 26
9 7 8 7 9 8 8 7 6 8 8 13 19 24 27 23 24 24 22 22 22 24 20 20 22 23 22 21 21 21 21 24 28 27 28 29 27 26
8 8 9 11 12 10 8 9 8 8 12 14 18 25 25 24 26 25 23 23 25 23 27 24 24 23 21 20 22 22 21 24 28 30 30 30 29 27
10 10 11 10 9 8 10 8 8 11 13 16 21 20 18 24 22 20 20 23 29 30 25 18 18 19 24 25 22 23 22 24 28 28 27 33 30 26
11 11 11 8 8 9 8 8 9 10 15 18 16 15 17 17 16 19 22 25 30 22 19 21 24 25 23 20 20 21 22 23 19 17 21 22 26 28
11 10 10 10 12 11 9 8 9 11 15 15 14 14 15 17 21 21 22 19 11 16 17 32 25 26 24 21 21 24 23 21 21 12 13 18 22 24
12 10 11 11 11 11 11 11 11 13 16 14 16 16 19 23 23 23 21 19 20 28 21 22 27 27 23 21 22 21 15 15 20 21 20 18 21 24
13 11 12 12 13 12 12 12 15 18 15 11 12 18 19 21 21 22 24 21 20 23 17 15 24 28 24 27 16 8 9 16 22 22 25 24 25 27
13 14 15 15 12 13 13 13 17 18 11 8 10 14 16 15 15 18 18 16 18 22 20 15 22 27 26 23 8 11 16 16 23 19 20 21 25 27
15 15 15 14 13 13 12 15 17 15 10 11 13 15 15 16 16 14 16 15 16 14 8 18 23 17 6 9 8 17 19 17 20 18 15 17 20 24
18 17 15 15 16 14 13 16 15 11 12 14 17 18 18 19 17 17 17 17 17 17 26 22 18 20 6 10 12 20 14 23 19 21 13 16 19 19
22 19 16 15 16 15 15 15 12 13 16 18 19 20 17 17 18 19 19 17 16 20 19 19 18 14 12 14 10 14 22 21 15 20 15 19 22 19
25 22 18 16 14 17 16 15 15 17 18 20 20 18 15 15 17 20 18 16 16 15 17 15 18 21 17 15 12 16 16 20 12 26 15 18 11 10
26 25 21 20 17 18 18 17 16 15 16 17 17 14 13 14 16 17 19 20 17 21 17 15 16 22 20 15 12 14 15 9 19 25 14 6 5 10
23 25 23 23 22 22 21 19 17 16 15 17 15 12 13 13 14 16 16 19 16 16 20 23 22 22 13 11 7 7 10 13 13 18 9 11 11 4
24 25 25 27 26 25 24 21 18 19 17 16 14 12 11 11 12 14 15 17 18 17 17 20 23 23 18 5 12 7 8 10 13 12 13 5 12 13
22 26 27 28 27 26 24 22 20 19 16 15 14 11 9 8 10 13 14 16 18 18 17 19 19 14 5 3 6 10 10 12 12 6 9 13 9 11
28 29 30 29 27 26 25 22 20 18 18 18 14 10 8 9 10 12 12 14 17 17 15 17 17 14 8 4 6 9 9 13 2 2 4 8 8 9
27 25 29 30 28 26 24 22 20 20 21 21 17 12 10 9 10 10 11 11 13 13 14 17 20 16 15 12 3 1 6 11 12 6 3 4 4 3
27 30 29 29 27 25 23 23 22 22 23 24 20 15 12 10 10 9 8 10 11 10 15 18 16 15 14 10 9 2 3 6 8 10 12 11 5 1
28 31 31 29 28 25 24 24 24 24 21 24 23 18 14 12 10 8 7 7 7 9 12 17 15 14 12 10 10 8 3 2 4 6 9 10 11 12

GFSNE_925_spd_039.txt.gz
Wind_Speed
7 8 9 8 7 9 10 11 2 2 1 4 5 8 22 22 23 23 22 23 20 20 20 19 20 21 23 23 23 25 26 26 28 29 29 29 28 28
9 9 9 6 6 7 7 8 9 9 3 6 9 19 21 20 22 18 18 18 17 16 17 18 19 20 20 22 23 24 24 25 26 27 28 29 30 29
11 10 10 9 9 10 10 10 9 10 8 12 18 21 21 25 23 20 20 19 17 19 18 21 21 22 22 22 22 22 22 24 24 26 27 27 28 30
12 11 11 9 11 13 12 12 12 10 12 15 21 21 25 26 23 22 21 19 19 21 21 25 26 25 25 24 23 21 21 23 24 25 26 27 28 28
14 13 12 12 14 14 14 12 12 12 11 15 19 23 28 26 24 22 21 22 24 22 24 21 18 18 20 22 22 24 25 25 26 26 29 32 32 26
15 14 13 14 15 13 11 13 13 12 12 14 21 22 21 23 19 17 23 21 26 28 20 17 20 24 22 22 22 24 25 25 26 26 29 32 31 30
14 16 14 13 12 12 13 13 12 12 12 15 19 17 17 17 15 21 21 25 25 19 20 24 27 27 25 22 20 20 21 22 23 24 28 24 22 25
18 16 14 13 13 13 13 12 11 11 13 15 18 14 18 16 21 19 21 17 10 13 20 29 28 30 28 25 22 21 23 24 24 23 22 21 23 20
18 17 15 13 13 14 13 13 12 12 13 16 18 18 17 19 19 20 19 20 19 23 22 25 27 30 31 30 25 24 22 16 12 15 20 25 25 22
19 17 15 13 14 15 16 16 15 14 15 17 14 14 15 17 18 19 21 22 21 20 18 17 24 29 33 32 21 17 12 14 18 21 23 25 26 28
18 19 18 16 14 16 17 16 15 16 17 12 11 12 12 13 15 18 19 17 18 19 22 14 18 30 28 22 13 9 13 16 19 20 24 26 23 24
22 22 20 18 15 15 17 16 15 17 14 11 11 12 13 15 16 14 16 16 16 13 2 18 21 15 9 12 11 17 20 19 18 23 23 25 20 21
27 24 23 19 17 16 17 17 17 15 13 13 15 16 17 17 16 15 16 18 17 17 23 19 17 21 12 12 19 23 21 19 21 23 22 23 18 18
27 27 25 22 19 17 17 18 16 16 15 17 19 20 20 17 16 16 17 17 17 21 21 17 16 20 19 20 15 19 24 22 18 19 24 22 18 20
28 29 27 23 21 19 19 17 17 18 19 21 21 21 17 15 16 16 16 16 18 17 16 14 15 18 17 17 17 20 20 19 13 23 25 19 13 12
29 30 32 28 24 20 20 20 21 19 21 21 20 19 18 15 15 14 16 17 19 20 17 15 16 18 21 19 19 19 13 8 19 22 25 22 11 8
25 28 25 25 25 25 25 25 23 20 21 20 19 18 16 15 16 12 14 15 16 18 21 22 21 20 16 11 12 11 13 15 18 21 23 21 17 5
23 22 22 25 25 26 27 26 24 22 21 21 19 18 16 14 14 11 12 13 15 18 20 21 23 22 17 4 7 13 10 13 19 14 16 14 18 20
23 22 25 24 27 27 27 27 25 23 21 20 19 19 15 13 12 12 12 13 14 17 19 20 18 13 5 3 7 9 14 17 16 9 12 15 15 20
20 23 26 26 29 28 27 26 24 21 19 18 18 18 16 14 13 12 11 12 12 15 16 20 18 13 7 4 5 14 10 17 7 5 9 8 7 10
19 23 28 28 29 29 27 27 23 21 19 19 18 20 18 15 14 12 11 10 10 11 14 18 20 15 14 11 4 4 7 11 14 10 6 7 7 7
17 22 27 30 30 30 25 23 22 21 20 21 21 22 21 17 16 12 10 9 7 9 13 17 16 14 12 8 9 6 5 6 8 12 14 15 7 4
18 22 27 28 29 29 25 22 20 21 21 22 22 22 23 20 17 14 10 9 7 7 10 15 15 12 11 9 10 9 8 6 5 7 11 12 12 12

GFSNE_925_spd_045.txt.gz
Wind_Speed
8 10 11 8 8 7 9 9 9 6 9 8 11 7 9 11 16 20 20 22 27 26 25 23 22 22 23 24 25 26 27 27 27 27 26 27 26 26
12 13 13 10 11 10 9 10 11 13 9 13 13 12 11 14 16 17 20 25 22 24 22 21 22 23 24 25 26 27 28 28 28 27 27 27 26 25
16 15 16 16 12 11 12 12 14 14 16 20 14 13 13 16 17 18 18 19 20 19 21 23 25 25 25 26 25 25 26 27 28 28 27 28 28 26
17 17 20 14 15 14 14 15 16 16 18 20 18 16 15 15 16 17 18 17 18 20 21 23 23 22 21 20 21 23 25 25 25 26 27 27 27 28
20 20 20 17 17 16 15 15 16 16 16 17 20 16 15 15 16 17 17 17 17 19 21 20 17 17 19 22 23 24 24 24 25 26 26 27 28 28
23 24 22 20 20 16 16 16 16 16 15 16 18 18 17 15 15 16 16 16 18 19 16 14 18 21 22 22 21 20 22 22 22 22 23 24 26 26
26 24 23 24 23 20 16 16 16 16 16 17 18 17 16 15 15 15 17 18 18 16 15 16 22 22 20 19 18 19 21 22 23 22 22 23 25 28
22 21 22 24 24 23 23 22 20 18 18 18 18 17 18 16 15 14 15 15 15 14 20 23 20 21 19 17 20 24 24 23 23 23 23 22 23 24
20 18 17 21 22 21 19 21 21 24 23 19 19 19 18 15 13 14 14 15 18 22 22 23 22 19 16 19 22 20 14 16 19 20 18 19 20 22
20 19 17 17 21 22 18 18 19 19 19 19 19 19 17 15 13 14 16 18 19 19 17 20 17 19 21 23 20 13 13 22 20 19 19 22 25 26
20 20 19 19 23 23 23 19 19 19 19 24 24 21 21 17 14 14 15 16 18 19 17 11 16 24 22 22 13 13 24 21 19 19 21 24 24 27
19 21 22 24 25 24 24 22 21 21 17 16 16 18 17 16 16 15 14 15 16 14 5 14 17 18 10 13 12 23 21 24 26 24 22 21 22 21
20 20 21 25 24 26 29 27 27 20 17 17 16 15 15 15 14 13 13 13 16 17 18 16 16 20 18 25 23 23 21 24 26 22 20 19 21 23
27 25 25 26 24 25 26 28 30 27 17 16 16 16 16 15 14 13 13 13 15 19 19 17 19 19 20 23 24 24 25 23 22 19 15 24 25 28
32 34 32 28 26 25 26 28 27 27 20 19 19 19 17 15 13 12 12 13 15 16 15 14 15 18 19 22 24 25 24 24 19 17 23 23 26 30
27 30 30 27 27 24 22 23 28 26 26 22 20 18 14 13 13 12 11 11 13 14 11 11 13 14 19 20 21 23 20 15 23 20 22 25 28 23
31 29 25 20 18 18 19 21 19 23 24 23 21 19 16 14 14 11 11 11 12 12 13 12 12 15 18 20 19 16 15 16 17 21 19 20 22 23
28 26 26 23 20 19 18 17 17 20 22 22 20 19 18 16 15 12 11 11 12 12 12 11 12 14 11 7 10 12 12 14 17 15 15 16 13 23
24 24 25 24 22 20 19 18 17 18 19 21 20 19 18 16 15 14 12 10 11 11 10 10 10 9 7 6 7 7 10 13 15 14 13 14 10 14
22 22 23 24 24 21 19 19 17 17 17 17 18 18 17 17 16 14 13 11 10 9 9 8 7 8 9 6 9 11 9 8 11 14 14 11 8 13
29 27 26 23 17 15 16 16 16 17 17 15 18 17 16 17 17 15 13 11 9 9 9 8 8 11 11 10 7 8 5 6 6 9 14 9 9 10
27 29 33 19 14 13 13 14 15 16 15 16 16 15 16 17 17 16 14 12 10 9 9 8 8 7 6 6 8 9 6 6 5 5 8 9 7 6
27 26 27 29 27 11 10 11 13 13 14 15 15 16 16 17 17 16 14 12 10 9 7 6 6 5 6 6 7 7 7 6 4 3 4 7 8 8

GFSNE_925_spd_048.txt.gz
Wind_Speed
9 9 13 12 11 11 11 10 11 8 8 12 12 12 14 16 17 18 21 21 24 27 22 21 22 22 23 24 25 25 26 26 27 27 27 28 28 27
12 13 14 13 13 13 12 13 13 15 11 15 17 17 15 18 18 19 21 22 23 23 22 22 22 23 24 25 26 26 27 26 26 26 28 28 28 28
14 16 17 16 16 16 15 15 16 16 18 20 19 19 16 19 21 20 21 22 23 22 21 23 23 24 25 25 25 24 23 22 23 23 23 26 28 28
16 18 18 17 18 19 19 18 18 20 20 22 22 22 20 18 20 21 21 21 22 22 22 24 24 24 23 22 21 22 23 24 24 24 24 24 25 27
17 20 20 18 21 22 21 20 21 21 19 21 23 21 21 19 20 20 20 21 20 20 23 23 20 21 22 23 24 25 25 24 24 24 24 24 24 24
19 20 21 23 25 25 24 21 21 21 21 22 22 22 21 19 18 19 20 18 21 20 22 21 20 22 24 23 23 24 23 22 22 23 24 24 24 24
21 22 23 25 26 27 26 25 21 20 22 22 21 21 21 20 17 17 19 20 20 19 18 18 20 23 22 21 20 19 15 20 24 24 24 25 26 27
21 22 23 25 26 30 31 32 27 24 24 22 22 21 23 19 18 18 18 18 17 16 16 23 20 22 22 20 17 19 22 23 20 19 21 23 25 26
22 22 23 23 20 22 23 26 29 28 27 26 25 25 22 20 19 18 18 18 20 20 20 23 20 22 20 21 19 22 22 18 16 20 21 21 22 22
22 23 24 23 23 21 21 23 24 25 23 26 26 26 22 19 17 18 18 20 21 20 17 21 20 20 21 23 22 20 17 15 21 20 20 20 23 28
24 24 25 24 23 22 22 25 26 26 25 27 27 23 23 23 22 18 18 18 18 19 17 18 15 21 22 23 14 9 15 23 22 25 24 24 24 26
26 27 27 27 26 25 24 25 26 30 23 24 20 20 23 21 22 19 19 18 18 18 13 14 18 20 16 18 13 23 20 21 22 23 25 25 23 21
26 27 26 26 28 30 30 27 31 28 24 23 24 20 18 18 18 19 19 20 19 20 16 14 18 20 19 22 22 21 20 19 21 22 21 21 18 21
26 28 30 30 30 33 33 31 32 31 26 21 19 21 19 18 19 19 19 19 19 20 19 17 19 19 21 23 22 21 20 20 19 21 18 21 23 23
30 32 35 34 33 36 34 31 29 27 25 22 23 23 21 19 17 17 17 18 19 19 18 16 17 18 19 22 24 22 20 21 18 16 21 22 24 27
31 31 32 33 33 32 30 27 28 27 25 25 24 24 20 16 17 16 17 16 16 17 15 14 15 16 19 20 21 22 19 15 20 19 22 24 23 25
35 31 30 28 29 28 26 26 24 23 25 25 22 20 19 19 16 16 16 15 16 15 14 12 12 14 17 20 20 18 17 17 16 19 18 20 18 23
25 23 25 25 27 28 26 24 22 21 20 20 21 21 19 19 17 16 16 16 16 14 13 12 12 13 14 13 15 12 12 14 16 17 16 17 13 18
21 23 25 26 26 26 25 22 18 17 18 18 20 20 21 19 19 17 16 15 16 14 13 10 10 10 7 6 7 5 10 13 15 15 15 15 15 12
22 24 24 27 26 32 29 23 18 15 16 16 19 19 20 20 17 17 18 16 15 13 11 10 10 9 9 7 9 14 12 9 11 13 14 16 13 7
22 24 25 26 28 31 34 15 16 15 13 17 16 17 21 19 17 16 17 17 13 12 11 10 7 8 9 9 10 11 6 7 7 9 14 13 12 8
22 23 25 26 27 27 31 26 13 11 12 15 16 18 20 18 16 16 17 14 14 14 12 8 7 7 8 9 10 9 9 6 10 7 7 7 6 5
21 22 24 24 25 26 27 27 29 9 8 11 13 15 17 17 16 16 16 15 13 11 10 8 7 7 8 8 8 9 8 8 7 7 5 6 5 5

GFSNE_925_spd_051.txt.gz
Wind_Speed
12 7 10 11 14 16 14 14 13 8 9 16 16 14 14 16 17 14 18 22 24 27 32 27 23 23 22 23 25 25 26 27 27 28 29 30 30 30
11 9 15 15 17 16 16 17 16 16 10 18 18 16 17 19 18 15 19 25 26 27 25 26 22 21 23 25 25 26 26 26 27 26 26 26 27 29
11 14 15 17 17 19 18 19 19 18 17 20 21 19 19 19 20 20 20 22 26 26 23 23 25 27 26 25 25 24 23 22 22 23 24 25 26 26
13 17 19 19 20 21 20 20 21 19 19 22 23 22 21 20 21 21 22 24 24 26 26 27 30 27 24 22 22 23 23 23 24 24 24 24 24 25
18 21 19 18 21 21 21 25 22 21 22 23 25 22 22 22 22 23 22 21 24 25 24 24 24 21 24 26 25 23 23 23 24 24 24 24 24 25
22 21 20 20 24 24 26 24 25 24 25 24 25 22 24 23 21 21 22 22 20 23 25 24 23 23 23 25 24 25 24 22 20 20 22 26 27 26
19 21 22 24 27 25 25 26 26 26 24 23 22 24 23 21 19 20 20 21 22 21 24 22 21 21 22 22 22 20 16 16 18 21 22 22 23 24
16 21 22 21 24 27 30 31 33 33 30 26 24 23 26 22 23 23 20 19 17 21 22 21 21 23 21 21 20 22 20 22 23 21 18 20 23 24
18 19 22 23 23 25 27 28 30 33 35 33 28 28 27 26 23 24 20 20 21 22 20 22 21 22 21 21 20 24 24 24 19 19 20 22 24 24
20 21 24 26 26 27 28 27 27 26 26 28 27 28 25 28 26 22 19 18 21 23 21 20 20 20 19 21 23 23 17 16 18 20 24 24 25 26
21 23 26 28 29 31 28 26 29 30 28 29 28 29 30 27 23 16 17 17 18 22 20 19 19 18 19 23 19 18 17 23 20 21 23 25 26 27
21 24 26 29 31 33 34 30 29 31 28 28 25 23 28 30 31 26 22 19 19 18 20 17 17 18 17 21 12 22 19 21 22 22 21 23 25 24
22 25 26 29 32 33 28 30 33 32 31 29 27 24 21 21 22 23 21 20 19 21 20 10 16 19 19 22 21 20 21 20 20 22 20 22 20 23
24 26 29 32 37 41 41 38 38 36 30 28 27 21 24 21 22 23 24 22 22 23 20 17 16 18 20 20 19 21 20 19 19 22 21 20 21 23
24 29 36 38 36 33 31 31 31 29 28 25 24 24 25 25 22 19 20 22 20 20 18 17 18 18 19 20 20 21 20 20 21 16 21 20 22 24
27 32 37 34 32 32 32 31 29 28 29 28 27 25 22 21 22 21 19 17 16 17 17 19 18 16 18 19 20 20 19 16 21 19 19 21 21 12
31 29 26 25 26 25 26 28 27 26 25 28 25 20 19 19 22 19 19 17 16 16 16 17 15 16 17 19 20 19 17 16 16 19 21 20 17 12
24 22 22 24 25 27 27 28 32 26 23 23 22 20 19 18 20 20 18 18 17 16 17 15 12 13 15 18 20 18 13 11 13 17 19 18 18 15
18 20 21 22 25 26 28 29 30 35 23 20 21 18 17 17 18 18 18 19 16 16 17 13 11 11 8 7 8 8 8 11 12 13 14 14 18 18
18 20 22 23 24 26 28 29 33 41 24 19 18 17 17 16 18 18 18 17 16 15 16 14 13 13 13 6 9 15 16 13 10 11 13 16 16 10
19 21 22 23 24 26 28 29 32 36 17 12 12 14 17 17 16 17 18 16 16 15 16 13 11 6 5 7 9 14 9 7 7 7 10 12 12 8
19 21 23 24 25 26 26 28 30 33 36 11 12 17 17 16 18 17 16 14 17 16 14 12 7 6 9 11 12 11 8 3 10 12 10 6 4 5
20 21 23 24 24 25 25 26 28 30 31 32 21 8 12 15 17 15 14 15 14 14 14 13 9 8 9 10 10 10 11 8 8 9 11 9 6 7

GFSNE_925_spd_054.txt.gz
Wind_Speed
15 11 9 7 8 15 17 17 18 3 4 15 17 15 12 11 13 19 18 16 18 21 24 25 25 23 20 22 24 26 26 26 27 27 27 28 29 30
16 13 8 10 14 17 19 20 19 19 4 12 18 15 14 18 20 20 19 18 17 20 21 23 24 24 25 25 25 26 26 26 26 25 25 25 26 26
11 10 10 12 16 20 20 19 20 19 15 17 18 18 20 23 17 17 18 21 21 19 20 23 24 25 31 28 27 26 23 24 24 23 23 24 24 25
14 11 15 15 20 22 20 21 22 20 23 21 24 23 23 25 23 20 22 21 23 23 21 24 28 31 30 27 26 27 26 25 23 22 23 23 24 24
15 17 17 19 20 20 20 21 21 24 26 27 24 25 26 27 25 23 24 23 23 22 21 21 18 20 24 28 29 28 28 27 24 21 21 22 22 23
16 17 20 20 23 25 25 26 26 27 29 28 27 27 26 26 26 26 22 20 21 19 18 20 20 23 25 23 23 28 29 31 25 22 23 22 24 24
15 18 20 25 26 27 26 26 25 27 28 24 23 24 24 24 21 20 13 14 19 16 16 14 16 20 17 21 23 24 21 18 18 23 22 23 22 20
15 16 17 20 23 25 28 33 36 34 30 26 26 24 25 21 23 18 14 13 5 17 17 19 18 19 23 22 23 22 17 21 21 22 22 24 20 21
15 16 17 18 21 23 25 27 30 31 33 39 30 30 27 31 25 19 17 16 17 18 13 16 21 25 25 22 20 21 26 26 23 21 23 22 22 25
14 16 19 21 21 23 28 31 31 30 31 32 36 36 36 33 26 23 21 21 19 18 16 15 22 24 22 19 19 20 23 21 20 22 22 23 25 25
14 15 17 22 22 26 32 33 33 32 32 33 36 36 35 32 28 24 18 14 13 17 17 20 24 22 19 15 18 20 18 24 23 22 24 25 26 25
19 22 23 23 26 30 33 28 29 31 29 31 31 34 34 29 28 27 27 18 13 8 23 20 22 10 7 15 8 20 23 21 23 22 23 23 23 24
18 20 22 25 29 35 35 37 36 36 36 33 33 32 29 28 27 25 26 29 22 22 20 17 16 11 12 15 16 20 22 23 23 21 21 22 22 20
18 21 23 30 34 33 32 32 32 34 30 28 27 28 27 26 23 23 27 27 26 27 21 19 16 11 10 13 14 20 22 24 21 24 21 20 22 21
18 21 28 29 30 33 32 33 33 31 29 25 25 26 28 28 28 26 26 26 27 25 24 25 22 14 12 16 16 19 22 24 22 14 24 20 23 23
22 27 26 26 22 27 27 28 28 25 26 26 25 27 28 27 25 25 25 25 19 20 22 22 20 19 19 18 20 22 22 16 23 21 18 21 21 18
23 24 23 20 22 23 26 26 29 29 27 29 32 25 25 27 24 19 21 20 18 17 18 18 20 21 22 22 22 23 23 21 17 14 18 22 20 15
19 19 18 20 20 22 24 27 28 28 30 33 32 32 22 17 13 16 20 19 17 17 15 17 17 15 17 19 22 25 21 16 11 14 15 16 19 20
13 17 18 20 21 21 23 25 29 30 32 32 34 35 20 19 16 15 19 19 16 16 16 18 18 15 2 4 14 8 10 9 11 13 12 14 18 22
14 16 18 20 21 21 24 26 29 31 32 37 37 30 17 15 14 16 18 18 17 16 14 17 18 16 15 5 3 9 14 15 15 14 12 15 15 12
15 15 18 19 21 23 24 26 26 29 32 34 32 36 8 11 12 13 17 20 18 16 13 15 18 12 10 5 3 12 14 8 10 12 11 10 11 6
15 17 18 19 22 22 24 25 27 28 30 30 30 33 37 15 13 12 15 14 19 16 15 15 12 8 4 6 11 16 8 7 7 9 12 12 6 2
18 18 18 20 22 23 23 25 25 28 27 28 28 30 30 27 16 12 16 21 19 17 16 15 10 10 10 9 12 12 11 11 8 9 12 14 13 10

GFSNE_925_spd_057.txt.gz
Wind_Speed
17 19 16 14 13 10 11 14 13 4 3 17 19 21 19 17 19 22 22 23 23 21 20 20 18 19 18 18 19 18 20 21 23 23 24 24 25 26
21 20 16 15 12 12 14 20 24 20 8 14 18 18 19 15 16 20 23 24 24 23 24 22 20 19 20 21 21 19 20 20 19 20 21 22 23 25
17 13 12 11 10 13 16 19 22 23 17 17 20 20 22 24 25 24 23 25 25 27 26 24 21 21 20 21 22 22 22 21 21 20 19 20 22 24
15 12 13 11 11 14 20 20 22 23 25 21 25 29 32 33 34 33 30 30 28 28 28 26 24 23 21 20 21 23 23 21 24 25 21 21 20 21
13 14 12 11 12 16 19 21 23 24 24 27 26 29 34 35 35 34 33 33 33 32 29 27 25 24 19 18 19 21 20 22 24 26 27 24 22 22
12 10 12 13 18 20 22 23 25 27 27 27 26 27 28 31 32 32 32 31 38 29 24 21 23 19 18 17 16 14 18 20 23 22 24 26 26 27
9 10 13 17 18 22 24 24 25 26 28 30 25 25 26 26 25 30 31 27 19 17 22 19 18 21 20 19 17 18 19 21 17 17 18 22 25 27
8 10 10 13 17 18 21 24 29 33 32 29 28 23 28 28 33 31 31 20 8 24 21 25 22 22 18 18 21 20 19 19 19 19 19 21 23 26
5 9 12 10 9 12 16 19 20 21 22 26 28 27 29 32 34 31 29 26 22 23 18 22 20 19 20 21 18 19 18 19 21 20 19 20 23 24
1 3 8 12 16 21 25 29 31 32 31 30 28 30 31 35 37 33 32 29 25 23 21 17 24 22 21 20 19 17 14 17 16 17 21 22 24 26
6 9 12 14 17 21 25 30 33 36 35 32 31 34 39 41 35 31 27 23 14 21 26 22 19 17 22 19 12 13 17 11 16 18 21 22 23 23
8 10 12 14 16 20 22 25 29 33 35 39 37 33 31 32 33 32 30 26 12 6 20 15 19 15 5 13 14 10 13 19 18 19 19 20 21 22
11 14 16 17 20 19 18 22 26 32 34 33 32 31 31 29 28 29 30 31 18 17 19 15 11 13 12 8 10 13 17 18 18 19 18 20 17 19
11 13 17 19 17 16 17 19 21 25 26 29 26 27 30 29 29 26 29 30 28 28 22 20 17 15 17 9 8 13 18 22 18 18 16 16 18 17
11 14 17 16 15 15 19 20 20 22 22 23 23 24 27 33 34 30 27 29 27 28 24 22 19 16 15 15 10 15 19 22 16 7 23 16 19 19
15 16 15 15 14 19 20 20 20 22 22 22 25 30 31 30 30 28 25 24 23 24 22 21 19 20 18 18 18 18 22 11 20 21 20 17 16 13
12 15 17 17 19 18 17 18 21 23 24 25 27 30 30 30 32 28 26 23 19 17 19 25 21 19 20 20 17 21 25 24 20 16 13 18 17 13
13 12 14 15 18 17 18 20 21 22 24 27 27 29 30 33 34 21 6 8 13 16 17 20 19 15 18 19 19 23 24 23 15 8 11 15 17 19
11 12 12 16 17 15 17 19 23 23 26 25 27 29 32 35 32 21 16 14 14 16 18 18 16 16 4 4 13 10 16 14 11 11 11 13 18 21
10 12 14 17 17 17 18 21 23 24 25 27 28 29 30 32 37 18 17 14 14 14 15 18 18 18 11 7 9 11 10 11 13 14 11 14 16 9
9 12 16 16 17 20 22 22 23 25 24 28 26 27 28 31 31 25 13 17 18 15 13 16 22 16 17 10 3 6 9 8 11 12 10 11 12 5
12 15 14 16 20 22 23 20 26 25 22 26 25 27 27 28 29 30 26 12 16 17 17 17 13 13 14 10 8 6 8 5 7 8 9 12 10 2
14 14 16 20 21 21 17 25 28 24 25 23 24 27 26 28 29 28 25 24 14 17 17 16 15 15 13 11 9 9 10 12 10 9 10 9 12 14

GFSNE_925_spd_060.txt.gz
Wind_Speed
24 24 25 23 20 18 15 16 11 2 4 11 16 16 17 20 21 24 31 33 32 32 31 31 30 28 23 22 20 19 19 18 18 19 19 19 20 22
22 25 21 18 16 14 12 11 13 13 5 8 13 18 22 23 23 22 24 27 31 32 35 35 34 31 27 25 23 20 21 20 19 19 18 18 19 20
23 21 18 16 14 11 9 10 15 18 13 16 19 21 21 23 24 26 24 28 31 33 36 39 38 36 32 29 26 22 22 22 21 20 19 20 20 20
20 18 16 13 12 9 8 13 17 21 19 16 18 22 27 26 30 31 34 37 40 41 37 41 43 38 37 32 28 25 23 23 23 22 22 21 21 22
17 16 14 12 10 10 11 14 16 19 22 21 21 24 28 29 31 32 31 32 36 41 43 40 44 38 42 34 31 27 23 22 24 22 23 23 23 23
14 13 12 9 11 11 13 14 16 19 22 26 24 24 23 26 27 28 32 36 37 37 37 36 36 42 38 31 32 24 25 24 21 21 22 20 21 22
13 10 8 7 9 10 13 17 19 23 25 22 22 22 22 25 24 27 30 34 37 37 35 33 25 24 26 25 30 31 23 20 20 20 19 19 19 21
10 6 4 4 7 9 7 5 6 10 13 15 17 19 23 24 25 28 27 22 14 28 27 32 30 30 27 35 32 25 22 21 21 20 18 18 18 19
6 5 2 2 4 7 10 13 16 19 16 17 19 20 24 23 24 27 25 26 28 29 27 26 26 29 33 29 25 22 20 19 19 17 18 16 18 21
7 5 4 4 7 12 15 17 18 19 18 18 20 25 26 28 28 29 30 33 31 33 29 20 27 32 30 26 22 19 18 16 16 16 14 17 18 21
5 3 4 6 9 11 13 15 18 19 19 19 21 23 25 26 25 27 24 21 23 25 26 27 25 26 26 25 20 18 16 15 14 13 16 18 19 19
2 2 4 5 7 9 10 13 16 19 23 24 24 25 24 26 26 25 29 22 22 22 22 24 21 16 5 17 17 16 14 13 14 18 17 18 16 19
1 2 3 6 7 6 7 11 15 20 22 23 22 21 22 24 25 24 24 28 23 24 23 23 18 16 11 5 13 14 13 14 15 15 15 14 13 12
2 2 5 5 4 5 8 13 15 19 23 24 23 22 24 28 30 33 32 28 32 29 26 21 10 19 16 9 6 12 12 13 12 13 9 8 13 11
1 3 4 4 4 8 10 12 15 19 21 20 20 22 25 31 33 32 33 26 29 27 27 27 21 17 18 15 6 8 9 13 12 4 12 13 12 13
3 4 5 4 6 9 11 12 14 16 17 17 21 25 26 27 29 26 29 31 25 24 24 28 22 19 18 15 13 13 15 8 11 17 15 11 11 10
3 4 6 7 9 10 9 10 14 15 16 19 20 24 25 27 28 28 31 30 26 20 16 18 16 18 17 15 14 17 16 15 16 16 11 12 12 11
4 6 6 10 13 10 10 11 12 14 16 19 20 23 24 26 28 33 30 28 11 4 11 14 17 16 14 16 17 17 16 16 17 13 10 12 13 13
6 5 8 11 12 9 10 11 13 15 18 18 18 23 22 24 27 28 29 33 17 12 11 12 15 12 4 3 7 9 15 15 14 12 13 15 13 15
5 5 9 11 9 10 12 15 16 20 24 20 23 22 21 24 25 26 28 28 16 11 10 13 16 17 12 8 7 11 12 13 12 12 12 10 11 12
4 7 9 10 13 16 18 19 17 23 25 19 24 20 24 24 23 24 27 29 30 11 10 13 21 19 17 12 3 8 10 11 12 11 9 8 9 3
7 9 9 12 15 18 19 17 22 24 22 18 21 20 26 24 22 24 26 27 25 21 13 13 13 14 14 14 11 7 7 6 5 7 10 10 8 2
9 9 11 15 17 18 17 21 21 19 20 19 21 24 24 24 21 24 25 25 24 24 14 13 17 16 16 13 10 9 7 6 8 7 8 9 12 14

GFSNE_925_spd_063.txt.gz
Wind_Speed
31 30 26 27 25 21 20 17 10 2 3 7 8 14 17 17 18 19 23 24 26 32 36 38 37 36 37 36 32 28 24 23 22 21 19 20 20 20
28 25 25 22 19 18 17 15 12 8 2 6 10 16 20 19 23 24 24 25 25 28 32 37 39 40 41 41 41 35 28 25 25 23 22 21 21 21
24 23 21 19 18 16 13 11 9 9 8 9 13 18 21 22 25 26 26 26 26 27 31 33 37 40 45 45 44 40 32 31 30 27 24 24 23 24
23 19 17 17 15 13 9 9 8 11 13 11 13 16 19 24 27 30 31 31 32 33 32 32 35 38 42 42 47 43 36 41 37 32 27 25 25 26
19 19 19 16 14 11 9 8 10 11 13 15 12 16 20 22 26 27 29 31 31 32 34 36 35 37 38 41 42 47 39 41 39 30 29 31 27 26
15 15 15 15 13 10 10 10 10 10 13 16 17 15 19 20 23 26 30 32 33 32 35 36 38 41 41 39 38 41 39 31 29 32 32 29 27 27
16 15 14 10 8 9 8 9 9 13 16 16 14 15 17 16 20 23 27 31 33 30 36 41 39 40 38 42 41 35 34 32 33 31 30 26 26 23
19 15 12 9 8 8 6 6 5 6 8 10 15 16 17 18 20 23 23 24 22 26 27 36 34 39 35 33 33 28 28 31 30 28 26 25 23 21
16 13 11 9 7 5 5 7 9 11 11 11 15 17 19 21 23 26 22 24 27 31 29 35 30 34 35 38 38 30 29 30 27 24 24 23 21 21
13 13 10 7 4 6 8 10 10 10 9 10 12 16 18 20 22 25 27 27 29 27 21 27 29 33 35 37 38 29 25 26 23 23 22 21 19 20
11 8 5 3 5 7 7 9 10 12 13 14 16 17 19 18 19 23 20 21 24 28 23 24 27 29 31 36 35 29 27 21 18 22 20 17 18 21
8 4 2 3 3 4 5 6 9 12 17 19 18 17 16 17 17 17 22 22 22 25 17 18 22 20 10 21 27 24 20 17 21 17 14 17 18 20
6 3 2 3 3 1 2 4 6 11 14 15 17 18 17 19 22 21 21 21 24 28 33 25 20 22 18 9 6 19 20 19 16 14 15 16 16 15
4 3 1 1 1 0 2 6 8 10 14 16 16 15 17 21 26 27 27 26 26 32 38 33 22 19 13 6 4 15 17 16 14 13 10 10 9 11
2 1 1 1 2 2 4 6 8 12 15 17 14 17 20 26 27 28 27 26 29 32 29 27 31 25 22 8 7 11 13 15 13 9 7 8 11 9
2 2 2 2 2 4 6 7 10 12 15 14 17 21 22 24 23 24 27 31 28 35 24 21 27 25 21 19 14 11 13 7 5 10 11 13 9 8
4 5 3 1 4 5 6 7 10 12 13 15 18 20 21 24 23 24 24 27 22 25 31 23 19 23 25 16 13 14 13 13 11 11 9 11 9 9
5 5 3 1 3 3 4 6 8 10 12 15 18 16 21 21 23 26 22 22 24 26 27 14 14 11 9 15 16 15 13 13 12 11 11 11 13 11
4 5 3 1 2 2 4 6 9 10 13 18 19 16 22 19 22 24 22 23 26 25 29 16 10 9 4 4 5 14 17 16 14 12 12 14 15 15
4 4 2 3 3 4 6 8 12 13 17 19 18 17 21 19 22 21 21 21 25 28 28 14 12 15 11 7 6 10 13 13 14 13 12 10 10 9
3 3 4 5 7 8 11 14 13 15 19 17 16 17 20 22 22 22 21 22 24 22 22 14 14 13 14 12 4 8 10 11 13 14 10 7 5 4
3 4 5 6 9 12 14 14 16 19 18 18 17 20 20 21 22 20 21 24 22 22 23 25 19 13 15 14 10 12 11 10 9 9 11 11 7 2
4 4 7 10 12 14 16 17 18 18 18 18 19 19 21 22 22 20 24 22 22 22 21 23 19 15 16 16 13 12 9 8 8 8 8 9 11 13

GFSNE_925_spd_066.txt.gz
Wind_Speed
28 33 27 32 31 28 24 21 12 3 3 5 10 10 8 10 13 14 14 16 18 21 23 26 29 33 37 39 38 36 35 33 32 28 27 23 21 20
35 30 29 29 25 23 19 17 15 11 3 8 8 8 15 18 17 16 18 20 21 22 23 24 25 27 32 38 41 42 41 36 39 32 29 28 25 23
30 32 29 25 22 18 16 15 13 11 6 4 8 12 15 17 17 17 18 21 23 23 24 26 28 30 32 35 38 41 41 42 41 39 35 32 28 25
29 27 25 21 19 18 18 15 11 9 6 6 6 11 14 14 17 18 18 20 22 23 24 26 28 30 31 33 34 37 39 45 46 45 41 33 31 27
27 27 24 21 20 19 16 13 11 7 5 4 3 5 14 14 19 22 23 23 24 26 28 30 31 34 36 39 41 41 40 38 40 42 41 38 33 29
24 21 20 20 19 17 14 11 8 7 5 5 9 13 15 18 17 18 23 27 30 33 36 34 34 35 36 39 41 41 42 41 38 39 41 33 31 28
18 16 16 15 15 14 13 10 8 6 6 8 9 9 12 13 15 15 22 25 27 28 22 22 26 30 36 37 40 41 38 40 35 34 37 29 28 27
21 20 18 16 14 12 10 8 6 5 4 5 7 8 11 12 16 18 22 16 9 15 20 35 32 33 36 34 38 39 35 33 32 29 24 24 24 28
23 22 19 15 12 10 8 5 4 4 4 5 6 7 10 12 16 20 20 17 18 26 25 34 25 30 33 34 33 35 32 31 33 28 24 25 25 24
21 18 16 13 10 8 6 4 2 1 2 3 5 8 11 14 15 14 18 23 25 23 21 27 26 30 33 33 33 34 33 32 36 26 25 23 22 21
17 15 12 11 8 6 4 3 2 1 2 4 6 8 9 10 10 14 15 16 19 20 21 22 24 26 28 34 32 29 29 29 29 23 23 19 19 18
16 13 10 7 5 2 3 2 1 2 7 9 9 9 9 9 10 12 14 14 15 16 8 13 24 19 13 23 22 27 26 19 14 16 12 16 15 15
16 12 8 5 6 5 3 1 2 5 9 10 12 12 12 14 15 15 15 15 17 20 31 19 21 25 18 22 24 23 17 14 13 14 16 14 13 16
14 10 8 7 8 7 3 2 4 6 9 10 11 11 13 14 17 19 19 20 22 28 37 28 24 22 23 22 12 11 9 13 16 18 12 12 14 11
10 9 9 9 7 4 2 2 4 6 8 10 9 11 13 15 17 19 18 20 23 28 29 25 28 30 28 25 10 10 10 15 17 15 12 10 9 12
9 8 7 6 4 1 1 2 4 7 8 8 10 14 15 14 16 16 20 22 25 29 21 20 21 27 29 24 17 11 17 9 16 17 13 13 12 13
8 9 7 4 2 1 1 4 6 8 9 10 12 14 14 15 17 15 17 21 18 23 32 35 26 20 20 21 13 17 19 14 12 10 12 15 13 11
6 7 5 2 0 1 3 5 7 8 8 10 13 14 15 16 18 17 18 18 20 21 25 29 29 16 10 14 19 14 18 16 14 13 12 11 13 9
3 2 3 1 1 1 4 5 7 9 11 13 14 15 15 16 17 18 19 18 20 22 24 27 24 19 6 5 5 21 19 19 15 11 12 13 12 13
2 3 3 3 3 4 5 7 10 13 13 16 17 17 17 16 16 17 18 19 19 23 26 23 21 17 9 5 5 9 18 19 15 13 11 10 9 9
4 4 4 5 5 7 8 11 13 14 17 19 18 17 16 18 18 20 19 20 21 22 23 23 24 28 24 12 4 6 10 13 13 13 10 8 5 4
3 3 3 5 7 9 11 13 15 18 19 18 18 17 17 17 20 21 20 17 20 20 25 27 28 24 21 13 9 9 11 10 11 12 12 11 6 3
1 2 5 8 10 11 13 16 18 19 20 20 19 19 18 19 20 19 19 18 20 22 22 23 24 22 19 15 12 11 9 11 11 9 8 9 11 12

GFSNE_925_spd_069.txt.gz
Wind_Speed
24 24 22 27 21 26 22 25 16 3 6 9 9 11 11 10 8 10 10 9 12 13 15 18 21 22 24 28 30 32 37 39 38 37 36 34 34 36
28 31 26 26 26 28 26 24 22 15 3 10 10 10 12 8 10 11 10 12 13 14 17 18 21 23 25 27 29 30 32 35 38 38 37 36 41 36
30 33 30 31 29 28 26 22 20 15 10 7 11 11 10 7 8 7 9 12 11 17 19 19 20 23 25 27 29 31 34 36 39 43 43 43 40 38
33 29 31 31 28 24 22 22 19 17 7 9 10 7 7 7 12 11 10 10 11 16 19 21 23 25 27 30 31 34 37 38 39 40 41 41 42 42
34 32 30 26 23 22 21 20 17 15 13 8 6 9 9 11 9 9 10 11 12 18 22 24 26 26 27 28 29 33 36 37 39 41 40 41 40 41
30 25 26 25 24 22 21 22 19 15 13 12 9 6 6 6 7 9 12 11 15 17 19 18 17 19 23 28 31 31 32 34 34 35 36 38 37 36
24 20 21 21 20 22 25 23 19 16 14 11 6 5 7 6 7 7 12 14 16 15 11 15 17 21 22 21 24 26 30 30 31 32 32 31 33 36
25 21 19 20 21 21 19 17 15 15 12 8 6 6 7 6 7 9 11 12 7 6 13 23 19 22 22 23 26 32 29 32 32 29 25 24 29 26
25 26 25 23 22 21 18 14 11 9 8 7 5 5 5 5 7 10 10 11 14 18 20 22 18 24 22 24 27 31 32 32 31 26 22 24 18 20
27 28 27 23 19 18 15 12 9 6 4 4 3 3 5 6 8 10 12 14 16 17 14 14 18 24 24 26 29 31 29 27 28 22 23 28 28 21
24 22 22 21 19 14 12 12 9 7 4 3 3 5 6 7 8 7 10 12 13 13 17 15 15 27 30 28 19 17 22 29 25 21 20 20 15 15
25 22 17 15 14 13 11 10 10 7 4 2 2 4 4 5 6 5 7 11 12 10 3 10 20 17 12 19 16 23 21 23 25 13 8 9 11 11
24 19 16 13 12 11 9 8 7 7 3 2 2 3 3 4 5 7 8 10 13 16 17 12 18 23 16 22 24 22 23 20 11 5 8 7 8 12
21 15 15 14 12 11 9 7 5 3 2 1 2 2 4 5 7 9 12 13 15 21 23 20 21 23 23 24 25 21 18 17 10 9 8 8 10 10
16 16 17 16 13 10 7 4 3 1 0 1 2 4 6 8 10 11 13 14 17 19 20 20 21 23 22 26 26 23 19 14 9 9 9 9 9 8
19 18 15 11 8 9 6 3 2 1 1 2 4 6 7 8 10 11 14 15 19 19 13 18 16 20 27 26 26 26 21 11 11 13 11 9 9 9
16 14 11 8 6 5 4 2 0 1 2 3 5 7 9 10 11 11 13 15 18 22 22 17 17 21 25 29 26 25 18 16 15 10 11 11 12 11
11 10 8 6 4 3 2 2 2 3 4 6 7 9 11 12 12 13 13 15 18 20 23 22 22 23 18 16 21 21 17 18 16 12 12 12 12 11
8 7 6 4 3 2 2 2 4 5 6 8 9 11 12 13 13 14 15 16 18 19 20 21 20 17 10 10 14 18 17 17 14 13 14 13 12 9
5 4 4 3 2 1 2 4 6 8 10 10 12 12 13 13 14 15 15 16 18 20 22 20 18 15 14 12 14 11 22 16 15 15 14 12 11 9
4 3 2 1 0 2 4 6 8 10 11 13 14 13 13 13 15 15 16 17 19 19 20 20 20 23 23 19 15 18 13 21 16 14 12 11 9 8
4 3 3 2 3 5 7 9 11 13 14 14 15 15 14 14 15 16 17 18 19 20 22 23 22 21 19 17 19 15 10 11 17 16 13 11 7 4
5 4 4 4 6 8 10 12 13 15 16 16 15 15 14 15 15 15 16 18 19 20 21 22 21 20 19 19 21 19 11 12 11 11 10 11 12 12

GFSNE_925_spd_072.txt.gz
Wind_Speed
24 21 23 23 22 21 20 21 16 4 7 13 13 13 15 14 12 13 11 13 15 15 16 18 20 20 21 23 25 27 29 32 32 31 33 37 39 40
27 24 22 24 24 22 22 24 23 20 5 13 16 13 14 15 13 13 11 15 16 17 18 19 20 23 24 26 27 28 31 33 34 35 34 35 38 41
29 25 26 26 27 27 25 26 28 24 12 9 14 17 17 12 11 10 10 10 12 16 18 20 22 23 24 26 27 30 32 34 35 36 37 35 36 39
29 25 28 30 30 30 28 33 31 28 17 15 19 15 16 12 12 11 9 12 13 14 21 20 21 23 25 28 31 33 35 35 35 37 39 40 39 40
26 27 30 28 29 35 33 29 27 26 23 14 11 11 11 11 10 9 10 11 13 15 18 18 18 21 23 23 25 27 30 31 30 31 33 36 36 36
41 38 36 38 41 37 33 30 28 25 20 16 13 10 9 9 9 9 11 12 12 13 15 16 15 17 18 20 25 25 24 24 26 32 31 33 35 36
39 39 37 39 36 37 35 32 30 28 20 16 12 8 9 11 11 9 10 11 13 15 14 11 12 16 18 19 22 22 22 28 31 30 31 33 33 33
36 34 32 31 28 31 31 30 30 26 19 13 12 11 13 10 9 9 9 10 10 8 9 15 16 19 19 20 22 27 31 32 33 28 29 32 31 29
34 32 28 27 29 30 26 26 22 19 16 14 12 10 8 8 8 9 10 11 13 14 15 18 18 21 19 20 23 28 32 34 31 26 31 33 27 25
27 28 30 29 30 30 27 22 18 14 12 10 11 8 6 6 7 8 9 11 14 15 15 17 15 20 20 21 25 27 21 21 23 28 32 28 26 26
23 25 29 30 28 25 25 18 14 11 11 11 11 11 9 9 8 5 9 10 12 14 14 16 14 19 23 25 16 16 16 23 23 26 32 25 21 23
22 22 25 25 22 15 19 21 17 11 7 4 3 2 3 4 7 6 8 11 12 11 4 7 13 16 10 13 13 22 17 21 24 24 23 13 10 9
26 24 21 22 19 16 14 11 14 12 10 6 5 4 4 5 5 6 8 10 13 16 15 10 12 18 16 23 23 23 22 19 18 18 9 1 2 7
26 22 19 18 17 17 13 14 14 11 6 4 3 3 4 6 7 9 10 12 15 18 19 17 16 19 22 25 25 21 20 20 18 15 12 7 10 9
21 23 21 18 15 14 14 13 10 5 4 2 2 4 6 7 9 11 12 13 16 17 18 18 20 22 22 25 27 27 26 23 19 14 10 9 9 8
23 23 19 13 11 12 9 7 5 3 1 2 4 6 7 8 10 11 14 15 16 17 15 16 19 20 24 25 24 27 24 18 17 12 13 12 12 9
20 16 11 9 7 6 5 3 2 0 1 2 4 7 9 11 13 13 14 15 17 18 18 17 17 20 24 27 28 28 28 27 25 18 15 15 14 12
12 10 8 7 6 5 4 3 1 1 2 4 7 9 10 12 14 14 15 16 18 19 19 19 19 20 22 24 25 30 28 28 23 19 17 14 14 12
9 8 6 5 4 3 2 0 1 2 4 7 9 10 12 14 15 16 16 17 18 19 20 19 19 19 12 12 23 21 27 23 20 17 18 16 14 12
9 8 7 5 4 2 1 2 4 6 8 9 10 12 13 15 16 17 17 17 18 19 21 20 18 18 18 13 22 35 32 26 21 16 17 15 13 8
8 7 6 5 4 3 3 5 6 8 9 11 12 13 14 15 17 17 18 18 18 20 20 20 20 21 25 24 22 27 28 24 25 16 16 15 14 12
8 7 6 5 4 5 6 8 10 11 13 14 15 16 16 16 17 18 18 19 19 19 22 23 22 21 21 22 22 25 27 28 21 24 8 10 5 5
7 6 5 5 6 8 9 11 12 13 14 14 15 15 15 16 16 17 17 18 19 20 21 22 22 21 21 22 23 26 27 27 15 16 15 16 11 6

GFSNE_925_spd_075.txt.gz
Wind_Speed
30 28 26 24 24 23 22 20 18 8 8 12 14 16 17 20 24 25 23 20 21 21 21 21 20 20 20 21 21 23 24 26 27 27 28 27 28 30
30 30 26 26 27 26 23 23 22 21 7 13 14 15 17 18 19 22 15 18 19 19 20 22 22 21 21 21 23 25 26 27 29 29 30 31 30 31
36 33 30 29 28 27 24 25 22 23 14 14 20 21 20 21 19 21 16 17 15 18 19 21 23 23 23 24 25 26 27 29 30 32 33 35 35 34
35 32 32 31 30 26 26 31 29 26 23 18 23 23 25 25 21 16 16 15 15 15 19 19 20 22 23 25 27 29 30 31 31 31 32 33 34 31
35 34 32 30 28 27 33 30 30 31 31 23 19 24 22 22 19 20 17 18 15 18 17 20 22 21 23 25 25 25 25 26 27 24 24 27 32 34
37 36 34 33 33 30 33 36 32 30 27 26 18 20 22 20 21 13 13 14 17 16 15 18 19 20 20 16 18 21 20 21 21 22 26 33 34 33
37 36 38 39 39 41 37 35 35 31 26 25 18 17 18 20 20 14 16 16 15 13 15 15 13 14 15 16 18 19 18 19 24 30 33 33 31 31
33 33 35 40 43 41 45 44 42 33 27 25 21 19 18 19 19 16 12 10 9 12 13 13 13 16 17 16 16 22 25 29 29 33 31 28 29 32
32 34 39 38 37 37 32 31 28 30 30 25 18 12 12 16 15 12 10 8 11 14 12 16 16 19 19 18 19 23 25 29 28 25 25 27 29 34
35 37 37 33 30 29 28 25 21 17 11 9 17 19 14 11 11 9 7 7 10 14 14 15 15 17 18 20 21 25 26 23 23 26 26 28 33 38
26 24 24 22 22 26 26 24 17 13 15 12 7 4 8 13 12 6 5 7 9 13 13 14 15 18 17 21 25 18 14 22 20 24 23 28 33 31
13 11 13 16 22 24 25 22 17 13 7 12 6 7 6 7 7 7 4 7 8 8 3 7 12 12 11 12 14 14 20 20 25 23 22 26 24 19
20 22 23 22 21 20 18 17 16 11 9 9 9 6 3 3 2 2 3 5 8 13 14 8 8 14 16 20 19 19 23 23 20 22 21 22 16 10
26 26 24 24 23 20 19 17 12 13 7 7 3 3 3 2 4 5 6 9 11 15 16 16 14 16 20 22 21 20 21 21 22 25 24 18 15 15
30 28 26 23 22 19 17 18 10 10 6 4 3 1 2 3 6 8 9 10 13 16 17 17 19 21 21 23 24 23 24 23 23 27 26 19 15 11
33 27 24 19 16 20 16 13 9 6 4 0 1 3 4 5 7 9 11 12 14 17 15 17 19 20 22 23 23 26 22 19 23 28 26 22 16 14
31 24 18 14 12 11 10 8 6 4 3 3 4 5 6 8 10 11 12 13 15 18 19 17 17 19 22 26 25 25 27 26 26 27 27 24 20 18
19 15 12 11 10 8 8 6 4 4 3 4 5 6 8 9 11 12 14 15 17 18 18 19 19 20 22 24 24 28 26 24 22 23 27 25 18 18
15 13 12 11 10 9 8 6 5 3 4 3 5 7 9 11 13 15 16 16 17 18 19 20 19 20 12 12 22 21 19 21 27 30 28 24 19 16
15 14 12 11 9 8 6 5 4 4 5 6 8 9 10 12 14 16 17 17 18 19 21 22 22 21 17 13 22 30 29 28 27 28 28 25 18 13
14 14 12 11 9 7 6 4 4 4 6 7 9 10 11 14 16 16 18 18 18 20 21 21 22 25 26 27 24 27 26 22 25 28 26 29 14 13
14 13 11 9 7 6 4 5 6 7 9 10 11 12 13 13 15 15 16 18 19 20 22 23 23 24 23 23 24 27 28 26 28 30 28 26 7 7
11 9 7 6 5 5 5 6 7 8 9 10 11 11 12 13 14 14 15 17 18 19 21 22 22 22 23 25 26 27 28 27 26 27 29 14 10 13

GFSNE_925_spd_081.txt.gz
Wind_Speed
34 34 30 30 30 30 29 27 17 6 6 21 25 31 34 34 36 38 40 41 42 41 37 34 34 35 35 35 35 33 30 27 25 25 23 22 22 21
38 36 35 35 34 35 35 36 32 22 9 25 28 31 33 34 31 30 33 34 37 37 36 34 35 35 34 33 30 27 26 24 23 24 23 23 22 20
37 37 40 40 36 35 36 36 32 28 20 29 32 35 33 32 31 33 34 34 32 32 34 33 32 31 30 28 25 24 24 23 23 23 24 24 25 25
38 36 39 36 34 34 35 35 34 34 31 27 34 34 35 38 38 37 35 36 35 33 34 34 31 28 26 24 24 22 22 22 23 24 24 25 24 22
40 38 41 37 38 36 36 34 35 36 34 33 32 33 36 37 36 35 39 40 39 36 34 32 26 25 24 21 19 20 22 23 22 20 18 17 16 17
42 43 42 39 43 39 39 37 38 34 30 30 28 24 27 33 32 25 28 34 32 28 28 29 25 21 19 17 15 17 17 16 14 15 16 16 17 21
44 44 45 46 46 44 37 38 34 34 29 24 24 22 19 19 22 29 29 25 26 25 21 20 17 17 17 15 15 15 15 16 15 17 18 18 21 24
43 43 44 46 49 49 48 48 42 36 31 27 30 27 27 26 25 23 19 11 5 14 18 13 14 16 13 15 15 14 16 16 16 17 18 21 24 25
41 40 40 42 45 47 46 47 45 41 42 37 32 33 27 31 29 23 23 19 10 12 15 12 15 9 15 17 15 16 17 15 16 18 21 23 24 24
42 42 42 45 45 43 38 31 24 23 26 28 28 27 20 22 25 25 23 18 13 10 5 3 8 17 18 17 14 12 16 19 18 19 17 20 21 26
40 42 44 44 41 40 34 25 15 9 8 9 12 16 17 17 19 23 18 18 5 1 6 6 8 9 11 13 13 14 18 16 13 14 19 24 28 26
35 30 33 35 35 36 35 31 27 26 28 28 27 26 23 19 16 14 12 10 7 4 3 3 1 3 4 2 5 9 12 13 20 26 31 30 24 28
30 22 19 16 21 23 23 29 33 34 28 27 25 23 22 20 17 16 13 8 6 6 4 6 4 7 5 5 10 20 24 27 26 27 29 29 29 28
17 19 21 22 23 23 24 31 32 31 30 26 26 22 22 18 16 11 8 6 4 1 7 9 6 9 10 11 10 12 20 24 21 27 28 27 25 22
34 38 39 39 37 35 33 31 29 26 25 23 21 21 16 11 6 6 5 5 3 2 6 9 10 12 14 16 17 19 19 20 19 17 26 31 31 30
35 32 40 42 39 34 29 28 27 26 23 23 19 16 16 14 11 7 6 5 4 6 8 9 10 13 16 16 17 18 18 14 23 28 29 30 26 24
39 34 28 26 28 29 26 26 24 21 23 20 18 16 13 11 11 8 8 8 7 7 9 11 12 12 14 14 15 16 19 19 18 15 19 25 27 27
32 28 21 22 20 21 23 23 23 19 18 17 16 13 12 10 9 9 9 9 8 8 9 11 16 20 19 17 15 16 15 19 21 22 23 23 28 26
29 25 22 22 24 23 20 21 19 18 15 15 12 12 10 10 10 10 10 11 9 9 11 14 15 14 7 7 15 18 24 25 27 25 22 23 27 31
26 25 22 23 22 23 21 18 17 15 14 14 14 12 11 11 12 11 12 14 14 11 12 12 13 13 14 10 19 23 16 22 22 25 25 26 29 30
26 26 24 23 22 21 20 18 17 17 15 13 12 12 11 10 11 11 12 12 13 12 12 12 15 17 18 20 18 21 22 22 24 27 28 28 27 27
23 22 21 21 19 18 17 16 15 13 12 12 11 10 9 9 10 10 11 13 13 12 12 14 15 16 17 16 18 23 27 30 33 29 27 28 27 12
22 19 19 18 16 15 14 14 13 11 10 9 7 7 7 8 8 8 9 11 13 14 15 14 18 16 17 18 21 23 27 30 31 33 33 27 28 31

GFSNE_925_spd_084.txt.gz
Wind_Speed
40 38 38 36 32 29 27 27 19 5 6 18 24 30 32 31 34 36 38 38 38 41 43 44 43 43 41 42 42 43 43 42 41 36 33 29 26 24
41 41 40 36 34 31 39 36 31 19 7 22 28 30 31 29 32 36 38 39 40 38 39 41 44 45 45 43 41 41 40 39 35 32 29 26 24 23
43 44 46 43 38 40 42 37 33 30 19 29 33 38 38 37 37 37 39 43 43 40 36 36 38 37 39 39 38 37 36 33 30 28 26 25 24 24
37 38 43 41 41 41 40 37 34 34 29 25 28 30 36 42 42 41 48 48 45 44 41 41 39 37 38 40 38 35 31 28 24 24 25 25 25 24
41 41 42 38 39 39 38 37 35 35 32 29 29 32 32 36 41 41 44 45 45 44 44 44 39 37 35 33 29 29 25 23 20 22 22 23 23 19
43 46 44 43 44 41 38 39 38 32 31 28 29 30 30 33 36 28 33 43 44 41 42 40 35 34 32 29 26 24 20 16 14 17 18 18 16 16
42 44 45 47 49 47 41 41 36 34 33 30 29 28 25 20 24 32 31 27 31 34 35 35 33 32 29 26 24 19 14 11 13 17 18 18 18 18
42 43 44 45 51 52 53 52 44 37 36 31 31 28 32 29 31 29 25 17 5 23 27 26 24 28 30 27 24 20 14 11 16 17 19 19 17 19
42 41 40 42 44 47 51 51 52 53 48 44 38 38 37 36 32 30 30 25 16 13 24 13 16 17 15 15 14 10 10 16 18 17 17 17 18 19
42 43 42 42 42 45 45 44 49 53 54 54 51 42 35 26 27 29 27 18 15 13 13 5 8 8 11 10 10 12 17 17 14 15 16 17 17 17
44 44 43 42 44 46 46 46 40 32 29 28 29 24 22 19 20 21 20 22 5 4 4 6 6 4 4 8 10 13 14 11 10 10 11 14 18 22
38 41 44 47 45 47 49 40 32 24 21 23 24 24 21 19 18 18 23 17 14 5 4 4 6 4 3 4 10 11 9 10 13 15 19 22 23 24
37 40 38 36 34 33 36 29 26 31 28 28 25 25 27 27 25 19 19 16 16 12 7 5 4 2 1 2 7 13 19 20 21 25 25 24 22 19
19 12 12 13 16 17 19 26 39 37 33 30 28 24 23 24 20 17 13 14 12 13 6 2 2 2 0 2 4 7 19 22 19 22 19 19 25 24
32 36 36 37 39 37 32 31 31 26 28 26 23 23 21 17 19 15 13 12 11 12 9 8 7 5 5 4 8 10 13 15 17 14 22 24 24 22
33 40 45 44 39 34 32 29 30 24 24 22 24 23 20 18 18 14 12 9 8 11 9 8 6 7 7 5 7 10 11 11 18 14 16 22 22 22
34 31 26 29 31 30 29 29 26 29 26 23 22 22 18 18 15 12 12 10 10 9 10 10 11 12 10 7 8 9 9 11 16 19 20 22 21 24
32 25 22 19 25 24 23 25 24 22 23 21 21 18 16 15 12 14 13 13 11 10 11 13 15 11 10 8 5 15 15 18 21 21 21 22 24 23
29 27 23 19 21 22 21 20 21 21 19 18 17 16 14 14 13 14 13 12 9 8 9 9 10 11 6 5 11 11 21 20 21 21 20 22 27 27
23 25 26 24 21 18 19 17 19 18 18 17 16 15 13 13 15 12 11 11 8 8 8 9 11 13 10 4 14 23 17 23 25 25 27 29 31 32
21 25 23 23 23 20 18 17 18 17 16 15 15 15 14 14 15 14 12 14 13 10 9 10 12 13 16 17 14 17 21 20 23 26 29 28 27 30
23 22 20 20 20 18 18 17 16 15 14 14 14 14 13 13 13 14 15 13 11 13 11 12 14 17 15 14 17 21 25 29 30 27 26 27 26 11
19 18 18 17 15 14 14 15 15 14 13 11 11 12 11 12 10 10 10 11 13 13 13 14 16 15 15 16 18 22 25 28 28 29 35 32 30 28

GFSNE_925_spd_087.txt.gz
Wind_Speed
41 44 41 39 42 34 32 30 17 4 4 17 20 26 27 27 33 29 36 34 33 35 38 40 42 44 44 44 44 45 45 45 46 45 42 39 37 35
40 41 43 39 40 40 38 31 26 18 7 22 27 32 31 31 35 31 34 33 34 37 36 39 42 42 41 44 44 44 44 43 44 44 43 44 40 36
38 40 45 43 40 40 39 38 32 30 14 30 33 37 36 38 39 38 37 38 40 46 43 41 43 46 41 37 41 45 44 44 40 40 45 37 32 29
36 36 38 38 38 39 40 39 38 38 33 31 35 33 40 44 44 44 45 44 45 46 46 45 43 46 42 43 43 42 39 37 37 39 35 31 29 26
42 39 40 39 38 35 34 34 35 34 31 29 33 33 33 37 42 44 45 44 45 47 48 44 42 42 43 44 44 42 36 33 32 26 26 25 24 24
44 46 42 41 43 39 37 38 35 32 31 29 31 35 33 31 32 30 31 39 44 45 45 43 42 42 45 42 39 37 33 32 28 27 26 22 19 19
42 43 46 48 48 46 39 40 35 34 34 33 31 31 31 27 28 34 29 34 35 37 39 40 40 39 39 33 33 32 29 27 27 22 18 15 16 17
42 43 45 47 52 53 54 55 47 38 37 35 33 30 34 34 32 33 32 23 10 31 34 31 33 30 30 29 30 27 26 20 15 14 14 13 14 21
42 42 40 42 45 45 50 55 57 58 55 47 39 39 36 36 34 31 32 32 33 25 23 16 17 17 18 20 24 25 20 15 14 11 9 13 17 18
43 44 42 43 42 44 44 41 49 56 61 63 56 50 43 39 39 38 36 28 18 14 19 5 13 14 16 18 15 15 12 10 7 7 9 12 15 16
45 44 43 45 47 46 45 41 40 40 43 44 46 44 48 50 46 38 23 21 4 5 8 7 8 10 10 10 10 9 8 5 6 9 11 11 12 13
43 45 47 49 46 48 49 41 33 32 31 18 12 9 7 8 13 20 21 13 8 4 4 6 5 6 5 6 8 7 7 6 4 4 9 13 16 18
33 28 27 39 49 49 44 39 32 26 21 20 20 21 23 25 25 21 14 16 18 15 5 6 8 4 5 7 6 4 2 5 10 13 13 13 10 10
10 9 9 4 5 7 5 20 27 32 30 28 24 22 23 27 26 25 25 26 23 21 13 7 9 6 4 4 1 0 8 13 13 15 12 10 16 18
33 30 26 31 37 38 35 33 30 28 28 24 26 26 25 23 23 24 24 24 22 20 17 14 13 9 8 5 2 3 6 4 8 6 13 15 17 19
32 30 35 33 34 31 30 33 33 30 29 25 20 22 23 24 22 18 19 20 23 21 16 15 14 11 8 6 4 5 5 4 11 14 18 21 23 23
29 32 30 27 29 31 31 33 32 30 28 25 24 21 23 23 23 20 19 21 19 13 13 15 13 11 8 5 2 4 7 9 13 17 17 18 18 20
33 26 26 27 27 27 27 25 31 28 26 24 23 21 20 20 19 20 18 17 15 12 12 14 17 13 9 7 4 7 9 15 16 16 18 21 22 21
30 27 24 25 26 26 24 24 23 21 18 19 19 19 17 16 18 17 13 12 13 11 13 14 13 11 6 3 8 3 17 17 19 21 20 20 24 26
26 23 23 24 23 22 22 22 21 19 20 19 17 17 17 17 17 15 12 12 11 10 10 10 11 11 9 4 9 23 18 20 21 22 24 24 27 29
23 25 24 23 22 21 20 19 18 18 18 17 16 17 16 16 16 14 14 13 12 11 9 10 11 11 10 11 11 15 23 21 20 23 27 26 28 32
21 21 20 19 18 17 15 15 16 16 16 15 16 14 14 14 13 13 12 12 11 10 8 8 10 12 8 9 13 18 22 32 28 26 24 26 27 10
18 18 17 16 15 14 13 14 15 14 13 12 12 11 10 12 10 9 9 9 9 10 11 13 15 15 17 15 17 21 25 29 30 33 38 29 28 31

GFSNE_925_spd_093.txt.gz
Wind_Speed
36 36 32 30 30 24 26 22 18 10 9 12 12 22 22 28 27 37 40 30 32 33 31 32 33 34 35 39 40 40 41 42 43 46 47 48 48 50
34 37 37 30 33 31 32 30 27 22 12 22 21 27 31 33 36 33 35 37 42 40 40 39 39 38 36 40 42 41 41 41 42 43 43 43 46 47
33 34 36 35 33 33 30 32 30 27 18 27 25 26 31 36 37 41 46 45 44 42 49 46 42 44 43 43 46 48 48 45 46 46 44 45 44 44
33 30 34 36 34 34 35 37 34 35 30 30 36 36 35 38 43 41 45 47 54 53 56 48 53 55 50 50 47 52 53 53 50 49 46 47 46 44
34 33 31 29 31 31 31 32 31 29 31 31 34 35 34 34 32 41 48 45 43 51 56 56 54 54 53 52 55 55 56 55 50 49 49 48 45 45
31 32 32 33 34 33 32 34 33 32 31 31 34 35 33 35 32 33 33 35 36 38 43 49 49 53 54 52 52 51 51 49 50 50 49 45 45 46
32 36 37 37 39 39 35 36 32 32 32 31 30 32 32 31 32 35 34 37 38 36 36 34 35 36 41 45 46 45 45 45 44 41 41 42 44 43
31 33 38 41 45 46 47 49 43 35 35 35 34 33 38 38 37 36 35 31 18 31 35 38 35 35 33 30 36 42 40 37 33 36 35 33 33 36
35 34 33 34 37 38 40 49 53 55 56 48 39 38 37 38 38 38 36 35 35 35 32 29 25 27 23 28 33 32 26 22 23 24 24 21 16 12
32 36 37 37 35 38 41 38 40 48 53 58 55 50 40 35 33 33 35 37 36 32 30 19 10 5 7 7 9 9 14 17 17 15 14 14 14 14
27 21 20 24 23 29 32 35 34 36 34 40 19 18 19 22 27 36 26 18 17 5 2 1 4 13 17 21 22 19 19 18 16 13 10 9 7 6
5 8 16 11 12 16 21 22 20 16 17 10 9 5 6 6 8 6 10 13 7 4 6 2 11 6 4 10 12 14 14 14 10 8 5 3 3 2
18 22 24 21 15 10 6 4 1 9 14 17 20 20 21 23 21 19 15 9 10 10 7 4 5 6 6 6 8 10 10 10 10 9 9 6 4 3
20 19 20 25 29 26 26 25 26 25 24 27 26 26 24 27 28 30 29 31 30 27 16 8 9 7 5 6 5 6 9 9 9 8 5 3 5 6
22 21 21 23 26 30 27 25 25 28 28 28 23 24 18 21 16 18 22 25 28 29 24 22 18 14 12 8 5 5 1 5 8 8 7 8 8 8
20 23 25 27 29 26 28 28 25 22 22 22 20 16 15 16 16 14 11 10 20 20 20 19 16 13 11 10 9 7 6 4 6 6 8 9 9 10
18 20 22 22 23 23 24 23 21 20 19 16 15 14 14 14 15 14 13 15 17 13 14 13 10 12 12 8 9 8 6 7 9 10 10 12 13 13
22 22 21 20 20 18 18 18 18 17 15 14 13 12 12 12 12 13 14 14 14 13 13 13 11 4 5 10 9 6 6 8 10 11 11 13 18 15
24 20 19 19 18 17 16 16 16 14 12 12 12 12 11 12 12 13 13 12 12 12 13 13 14 13 6 4 3 5 9 11 12 12 12 14 20 22
20 18 17 16 15 15 14 14 13 12 13 12 12 12 12 12 12 12 11 11 10 10 11 12 13 12 9 5 5 8 10 10 12 15 16 19 23 25
16 16 14 14 13 12 11 11 11 12 11 11 12 12 12 11 11 11 11 12 10 10 10 10 10 8 7 6 7 10 11 10 12 16 18 20 19 18
13 13 12 11 10 10 9 9 10 10 10 11 11 10 11 10 11 10 10 10 10 9 9 8 9 8 7 8 11 15 17 19 15 15 13 13 11 6
11 10 10 10 10 10 9 10 9 8 9 8 8 8 9 9 9 9 9 9 9 9 9 9 9 9 8 10 11 14 17 20 24 23 13 9 13 20

GFSNE_925_spd_096.txt.gz
Wind_Speed
26 27 27 24 21 20 19 20 18 9 11 17 18 17 19 19 24 27 27 23 27 38 37 38 35 35 37 37 38 39 38 40 45 48 50 51 52 51
28 27 25 25 24 23 23 24 20 20 12 24 21 18 17 20 24 28 28 34 32 32 33 36 37 39 42 43 43 43 41 37 41 44 46 48 50 50
28 27 26 26 25 22 25 24 22 21 12 25 26 29 30 29 29 27 31 38 43 41 43 44 46 46 44 46 51 54 49 46 47 45 47 50 52 52
30 29 31 27 26 33 33 27 26 29 24 26 32 36 34 36 40 40 40 38 36 38 44 45 48 50 51 56 54 54 57 55 55 53 53 53 53 53
29 30 32 29 30 28 30 30 29 31 32 32 33 33 35 36 35 37 39 37 39 42 45 52 55 57 57 58 61 59 59 60 60 60 60 60 57 54
30 33 35 33 33 32 32 34 33 32 31 31 32 32 32 35 34 34 32 35 37 38 40 44 45 46 49 52 54 54 55 55 56 55 56 55 53 51
29 31 33 34 35 35 32 32 30 30 29 30 30 30 31 30 31 33 34 34 35 35 36 37 34 36 39 44 47 47 44 45 46 48 49 48 46 44
27 29 30 33 38 43 44 45 41 33 31 30 29 28 34 35 34 33 32 29 17 31 36 37 36 36 32 34 33 32 34 34 36 37 36 35 38 40
24 25 25 26 29 32 34 39 45 49 51 45 36 33 33 32 30 31 31 32 32 30 30 30 19 12 7 10 17 27 29 30 28 25 23 22 22 23
15 13 15 17 16 21 27 30 33 39 41 44 41 38 34 37 34 29 26 22 24 14 11 1 4 6 7 12 14 11 6 6 8 7 6 6 5 4
5 8 6 8 12 16 20 22 23 16 14 17 14 11 9 14 18 22 19 16 13 11 7 3 7 8 5 10 14 15 12 11 9 9 9 9 8 8
12 14 19 14 12 12 11 10 10 4 3 3 5 7 10 11 12 8 7 6 6 1 9 3 3 4 4 7 9 10 11 14 14 13 11 8 5 4
16 19 22 19 17 14 13 12 12 12 15 15 18 21 23 25 25 23 20 13 7 8 10 2 2 4 4 4 6 7 7 8 8 8 8 6 5 3
16 15 18 23 26 25 23 21 19 18 19 22 23 22 19 22 19 24 22 22 19 16 13 6 3 1 4 5 3 3 4 5 5 5 6 7 9 11
20 20 19 20 23 27 28 27 25 23 20 19 17 15 14 12 12 13 13 16 17 17 17 16 13 9 6 4 3 3 2 3 5 6 8 8 8 8
19 21 22 23 25 24 24 25 25 22 19 16 14 12 11 11 13 12 11 6 11 13 15 15 13 10 9 8 5 3 4 6 9 9 10 11 10 10
18 18 19 19 19 19 20 20 19 18 17 14 13 12 12 11 12 12 11 10 11 11 12 12 11 12 10 6 5 4 6 7 8 10 12 13 12 11
18 18 18 17 17 16 15 15 16 16 13 12 12 12 11 11 10 11 11 10 10 10 10 11 10 4 3 5 7 8 8 9 10 10 11 14 17 13
19 17 15 14 13 13 12 12 14 13 11 12 12 11 9 9 9 9 9 9 9 9 9 10 9 8 4 4 4 8 10 11 12 13 13 14 19 20
16 14 14 13 12 12 12 13 11 11 12 11 11 10 10 9 9 9 9 9 8 8 7 9 10 9 8 6 8 9 13 10 12 16 18 19 19 20
14 14 13 12 12 12 12 11 11 12 12 11 11 10 10 9 9 8 7 8 6 7 7 7 9 9 8 8 7 9 10 9 12 17 18 18 17 13
13 13 13 13 12 11 11 10 10 10 10 10 9 9 8 8 7 7 7 6 7 7 6 7 8 8 7 8 10 12 11 14 12 14 14 11 10 6
12 11 11 11 10 10 10 9 9 8 9 8 8 7 7 6 6 5 5 5 6 6 7 8 9 8 8 9 12 13 13 15 15 11 5 9 14 19

GFSNE_925_spd_102.txt.gz
Wind_Speed
24 23 25 20 16 14 12 14 9 4 6 20 15 31 32 30 30 31 32 34 35 35 37 37 37 38 38 38 42 45 45 43 43 44 45 44 43 43
25 24 22 21 21 23 26 20 24 7 2 9 16 16 27 28 25 25 27 28 30 32 33 33 33 35 40 41 38 41 45 43 43 44 44 44 44 45
29 28 27 22 23 24 27 22 18 16 8 16 19 16 13 18 24 22 20 25 32 35 34 36 40 41 43 44 43 41 40 44 48 48 49 49 50 51
29 28 29 26 24 22 23 26 25 23 22 18 22 24 26 28 29 32 37 36 38 38 37 40 45 47 45 43 44 45 46 48 50 52 53 53 53 55
31 28 25 25 25 26 27 20 23 24 22 20 19 23 26 26 29 33 35 37 36 38 40 43 42 43 46 49 48 47 47 46 47 48 50 53 53 51
29 32 29 27 28 28 27 28 26 19 21 23 20 21 26 28 29 27 27 31 33 33 32 34 35 37 37 43 43 44 42 45 46 49 51 51 51 46
26 24 26 27 27 30 26 26 27 28 24 20 23 23 24 20 23 28 25 25 25 25 24 22 15 13 9 8 11 16 26 30 31 35 38 38 33 33
23 23 23 23 24 23 25 27 24 23 23 23 23 20 16 14 6 9 13 12 4 15 15 12 14 13 11 11 12 17 18 15 16 16 17 16 16 17
12 10 9 9 16 20 22 22 24 24 35 35 27 23 16 14 18 23 17 11 9 16 20 11 11 4 4 6 12 11 12 12 11 11 11 10 9 9
7 6 6 4 4 8 8 7 4 2 1 2 2 1 4 8 10 11 12 12 10 5 6 1 3 2 3 6 13 12 13 13 13 12 12 12 12 11
17 12 7 5 4 1 5 12 12 16 19 17 16 13 10 8 6 3 4 3 2 5 11 4 6 3 2 4 7 9 11 11 11 10 10 10 10 12
22 22 22 16 10 8 9 12 15 13 12 14 18 19 18 19 17 15 9 6 4 4 12 6 6 3 2 5 8 9 9 9 11 12 13 12 12 11
27 26 26 27 26 22 18 17 20 19 20 19 21 22 22 23 24 23 20 15 10 10 10 4 8 4 3 1 3 8 10 11 9 13 16 15 15 16
25 22 25 28 30 30 30 26 24 22 20 20 20 21 20 19 18 20 21 22 19 14 10 7 6 9 4 2 3 5 10 11 13 13 15 15 15 12
26 21 24 27 30 30 26 25 24 23 21 20 19 18 16 14 13 13 14 11 16 19 16 10 11 10 11 9 3 7 9 8 14 13 17 17 15 14
21 20 23 28 29 28 27 26 24 22 20 18 16 14 12 13 15 13 12 8 11 12 16 18 14 8 8 9 8 11 12 9 15 16 17 15 14 12
21 21 21 21 21 22 24 23 22 20 19 17 15 14 15 13 14 13 13 12 14 13 14 15 13 8 8 9 8 11 14 15 17 19 20 19 15 14
19 18 18 20 21 19 19 21 19 19 17 16 16 16 14 15 14 14 14 14 14 13 14 16 16 15 1 8 12 13 14 16 18 18 17 19 18 21
20 19 19 20 19 19 18 18 16 16 15 16 16 17 15 14 14 15 15 15 14 12 13 14 16 15 7 4 9 11 14 17 18 21 17 17 20 22
19 19 19 18 17 17 16 15 15 15 16 15 15 14 15 14 15 14 13 14 13 12 11 12 12 12 4 3 6 15 12 16 16 21 23 22 21 15
17 18 18 18 16 13 14 13 14 13 13 13 13 12 14 13 13 12 12 12 11 12 11 11 10 9 9 8 9 12 17 7 17 19 21 20 14 13
17 17 17 15 14 14 11 12 13 11 14 13 13 12 12 11 11 10 9 9 9 11 12 12 11 11 10 9 9 15 18 14 17 17 14 13 10 4
14 13 10 11 12 11 13 11 10 11 7 11 10 10 10 8 8 6 9 11 10 10 13 16 17 13 15 12 13 17 18 17 21 23 22 17 16 19

GFSNE_925_spd_105.txt.gz
Wind_Speed
32 35 30 29 20 17 14 12 8 4 7 17 14 31 32 32 30 32 32 31 30 33 35 35 35 35 36 37 39 41 42 43 44 46 48 48 47 47
32 31 31 29 25 21 19 12 7 6 3 10 21 19 28 30 29 27 28 28 29 32 31 32 33 35 37 36 38 38 40 44 43 44 46 49 50 50
31 32 31 31 28 25 19 18 16 12 7 9 14 13 10 17 25 27 25 26 29 29 26 28 30 33 35 38 40 42 41 42 44 44 44 43 46 49
32 31 32 31 25 24 24 25 27 23 19 15 20 22 18 19 20 23 23 24 24 26 32 40 42 42 42 43 46 48 47 47 46 47 47 47 48 46
31 33 31 29 26 23 25 28 27 23 23 21 22 23 21 19 22 24 28 31 34 39 39 38 37 40 43 47 50 47 44 45 47 48 46 46 46 44
29 32 31 31 29 30 31 25 23 19 21 23 24 24 24 23 24 26 27 29 29 25 20 19 20 19 19 21 26 26 31 35 29 28 28 30 31 29
29 30 30 30 30 31 30 32 30 27 26 16 15 17 18 15 20 22 21 19 12 11 4 3 3 2 3 6 8 10 13 15 15 15 16 16 14 14
25 28 28 27 27 30 29 28 26 26 26 21 17 16 18 16 13 9 6 3 3 10 7 3 4 5 5 6 10 11 12 12 11 11 10 10 9 9
14 14 19 19 23 16 18 28 24 23 23 22 18 13 10 11 12 13 13 7 3 9 10 1 2 5 5 10 12 12 13 13 12 12 12 12 11 11
9 8 8 7 7 11 13 10 8 5 2 4 6 6 6 7 6 6 6 4 5 2 1 5 2 5 5 8 10 10 9 9 10 10 10 10 9 9
16 11 7 4 4 8 13 18 18 18 18 17 16 13 9 5 2 4 3 5 4 4 8 3 5 4 4 7 7 8 9 10 10 10 11 9 10 9
25 24 19 11 10 11 13 19 25 22 20 20 19 18 18 17 15 11 5 7 6 4 9 4 4 2 3 6 9 12 14 10 10 14 15 13 14 12
29 29 27 25 20 19 15 15 21 23 23 23 22 22 21 22 23 22 18 14 17 14 8 5 6 3 3 3 3 9 10 13 13 13 14 13 10 10
29 28 31 25 32 31 29 24 21 21 21 23 24 22 20 18 18 20 23 24 22 16 10 7 6 7 2 4 3 7 7 8 8 11 15 11 8 9
22 31 25 24 30 26 23 21 22 22 22 22 19 18 15 13 12 13 15 19 21 21 18 11 7 7 8 7 5 7 5 6 10 13 13 11 12 12
31 30 26 28 26 25 25 24 23 20 18 17 17 16 16 16 17 15 15 17 17 16 13 12 10 7 10 11 8 8 9 7 15 15 14 12 10 7
25 25 23 22 23 24 23 22 20 19 20 18 16 18 17 16 17 17 17 16 18 15 16 13 9 5 8 7 9 10 11 15 16 19 18 20 17 12
24 20 19 19 20 19 20 21 19 17 16 17 19 18 17 14 14 16 17 18 16 14 16 17 12 6 2 5 8 11 13 14 17 19 18 20 21 15
24 22 21 20 19 17 17 18 19 17 15 18 20 18 16 15 18 17 14 15 15 14 14 16 17 13 4 2 4 10 14 15 17 20 20 21 21 17
22 21 19 17 17 17 17 17 18 17 16 16 17 17 15 15 15 15 16 15 15 14 13 13 14 12 5 2 6 13 14 16 13 18 22 22 20 10
19 20 18 18 16 16 15 14 15 17 15 14 14 15 15 13 14 13 14 12 12 14 14 14 15 11 10 11 8 9 15 8 11 15 18 17 14 12
15 16 15 15 14 14 10 9 11 11 12 12 12 13 12 12 12 11 12 14 13 13 13 11 11 13 12 11 9 14 15 14 16 17 12 7 9 5
14 12 10 11 10 10 9 9 8 7 8 9 11 13 12 12 11 10 9 11 10 12 14 14 13 13 14 12 13 17 12 17 20 23 16 13 8 7

GFSNE_925_spd_108.txt.gz
Wind_Speed
34 34 32 30 32 32 22 24 12 5 9 15 17 31 29 30 29 30 32 31 30 28 28 29 30 30 31 31 33 35 35 37 40 40 42 44 44 45
31 34 34 32 30 24 25 24 20 11 3 21 24 19 26 35 36 33 32 31 30 30 29 29 30 31 32 35 37 36 37 40 42 42 43 45 46 47
30 33 33 34 32 24 22 18 12 9 5 7 13 14 27 20 24 27 28 29 27 26 26 28 29 30 26 33 35 37 40 41 43 44 45 46 44 43
27 33 28 32 30 32 27 26 23 23 15 13 19 18 13 12 15 16 19 19 22 26 28 30 30 30 34 39 42 42 42 43 43 44 45 47 43 40
31 28 28 29 29 30 32 30 27 23 21 17 13 17 21 23 23 23 22 22 22 23 25 27 31 33 37 38 39 38 38 37 34 30 28 27 27 28
24 28 30 31 30 31 32 28 26 21 20 19 20 18 20 19 22 19 22 21 21 16 19 19 23 22 21 15 18 21 13 13 13 11 11 11 11 12
25 27 29 31 33 34 30 26 25 22 18 18 17 18 16 17 17 22 21 22 16 9 10 8 4 4 1 2 3 6 5 5 6 7 7 5 4 4
26 26 25 26 28 29 24 22 22 24 22 19 18 13 17 16 16 15 19 14 5 11 10 6 3 5 6 7 9 9 9 9 9 10 9 9 8 8
16 20 21 19 22 22 23 25 23 24 25 23 18 17 14 14 13 11 10 7 4 5 3 5 6 10 10 12 10 9 9 8 8 8 7 6 6 6
11 12 14 12 15 18 16 16 13 10 13 17 17 16 14 15 15 14 11 9 6 3 4 5 8 10 8 7 7 6 6 6 6 5 4 5 5 5
11 8 9 8 9 15 18 20 20 19 16 15 14 11 7 5 8 11 11 12 3 0 2 6 6 8 5 6 6 6 5 5 7 9 8 8 7 7
21 19 13 14 12 13 18 20 24 20 18 18 17 16 13 11 9 7 8 10 7 3 1 4 8 6 4 7 9 9 9 10 8 9 10 8 8 8
27 27 24 19 19 18 19 19 23 21 22 19 19 18 18 19 19 15 10 8 11 7 4 7 5 5 4 6 5 7 8 6 5 8 11 7 6 6
28 28 27 30 34 31 29 26 24 23 20 20 21 19 18 20 20 22 20 21 20 17 9 5 4 6 6 5 3 5 4 4 5 10 11 6 4 4
28 26 27 28 29 27 26 23 24 21 20 26 21 18 14 13 17 18 17 18 18 16 12 9 6 5 5 8 6 4 2 3 11 13 11 9 9 10
25 27 29 28 28 26 23 24 26 20 20 23 20 16 14 15 13 11 12 14 15 14 9 8 8 5 13 11 8 7 7 5 12 15 14 13 8 7
24 25 25 26 27 24 23 23 22 18 19 18 17 16 16 14 15 13 12 13 15 15 14 9 9 10 9 6 9 7 6 9 11 15 17 19 13 10
23 23 22 22 21 19 19 19 19 17 16 17 16 14 12 12 14 15 15 13 15 15 16 13 4 3 4 6 7 8 11 11 11 13 14 18 18 12
25 20 20 20 19 19 17 17 18 16 14 16 15 13 12 13 13 14 14 14 13 13 13 14 14 13 4 2 1 7 10 13 12 15 15 15 19 16
22 20 18 17 16 17 17 17 17 16 17 18 17 14 13 13 14 13 13 11 9 8 10 11 13 11 5 2 4 8 11 11 11 15 17 19 17 12
18 19 17 16 16 16 16 15 15 15 14 14 15 14 13 12 12 11 10 11 10 10 9 10 10 8 7 4 5 7 11 7 11 15 17 16 12 11
16 16 15 13 13 12 11 10 11 10 10 11 12 12 11 10 11 9 7 8 10 11 9 8 8 8 8 9 8 10 11 14 15 16 8 5 7 5
12 11 11 11 10 10 8 7 7 7 8 8 9 10 9 10 8 9 8 8 8 9 11 13 10 8 8 9 10 8 12 18 19 19 11 10 7 8